GFSNW_sfc_wetblb_000.txt.gz
Wetbulb
52.74 52.50 52.64 52.47 52.02 51.76 52.39 45.19 39.85 50.04 51.02 42.04 36.94 35.90 39.68 42.97 42.88 45.34 43.55 42.76 41.21 39.34 38.82 37.67 37.57 37.71 39.47 42.80 41.67 37.64 38.55 33.10 28.01 32.67 38.00 39.86 37.46 35.12 34.06 25.25 25.45 26.92 23.83 28.04
52.26 52.28 52.18 51.86 51.83 51.79 49.79 45.45 44.34 49.40 49.00 34.25 30.43 39.74 42.04 42.84 42.41 42.42 41.71 40.69 42.02 41.89 37.84 34.63 38.43 39.68 42.65 43.41 41.36 37.99 38.38 31.33 25.12 28.87 33.83 36.62 35.36 36.39 35.60 31.54 29.34 28.86 22.20 27.51
52.35 52.16 50.01 50.41 51.76 51.66 48.27 43.75 38.92 43.83 44.41 41.03 39.72 38.61 38.70 40.01 43.85 42.42 43.09 41.59 42.37 40.44 38.08 39.67 36.80 38.24 42.14 43.54 42.49 44.11 41.85 33.79 29.94 25.08 29.39 32.55 32.03 35.17 35.52 33.73 29.74 28.84 29.43 32.68
52.16 50.19 49.85 51.21 51.53 51.41 49.06 43.08 39.60 41.85 35.07 38.31 40.18 40.60 40.25 39.64 38.66 42.51 43.04 40.99 40.71 38.55 33.76 34.91 35.06 38.79 40.42 41.64 43.27 41.14 38.73 31.95 32.76 33.66 35.19 34.92 35.34 34.87 35.13 32.68 32.89 31.09 33.16 31.85
51.56 49.45 49.29 50.94 51.15 51.33 46.70 43.64 42.59 42.18 40.42 41.72 39.14 37.17 37.83 40.37 40.17 40.81 39.41 39.54 40.23 40.18 36.43 37.16 34.78 38.35 37.15 37.63 39.44 36.83 37.53 29.48 31.01 30.15 33.95 33.80 31.74 34.45 35.00 34.73 34.29 33.68 34.56 33.63
51.23 49.69 48.77 49.29 50.82 50.96 46.85 45.22 44.16 44.06 36.60 35.16 34.25 34.57 39.34 40.40 42.05 41.77 42.59 42.12 38.96 34.02 40.38 42.26 42.42 42.54 41.80 39.78 37.20 34.98 34.56 28.84 28.37 23.97 30.44 29.47 25.09 29.72 32.31 33.24 34.61 33.74 29.78 34.73
52.01 48.95 49.00 50.45 50.47 50.69 48.55 46.64 42.81 38.34 32.43 30.01 35.87 40.40 40.68 40.44 40.35 40.25 41.77 41.64 36.81 41.07 44.99 42.45 40.25 37.70 35.20 36.45 37.79 39.82 31.08 27.62 27.57 23.88 30.76 21.90 32.95 36.20 36.67 34.09 34.81 35.97 34.51 35.08
52.03 49.25 50.07 50.29 50.33 51.04 50.22 47.27 44.21 38.38 31.90 34.61 37.52 40.34 40.33 40.33 40.75 39.82 41.13 43.89 43.16 43.43 39.48 32.42 28.26 28.58 27.70 28.88 37.30 35.43 35.04 31.83 28.18 28.73 28.30 29.11 34.38 35.68 32.46 31.38 31.43 35.54 34.23 37.36
51.13 51.36 50.74 50.42 50.31 50.95 51.35 48.73 44.68 41.83 35.61 36.43 41.77 39.90 39.65 33.88 32.54 34.13 38.78 43.96 43.98 40.87 30.05 28.55 21.54 21.45 27.16 29.30 31.46 35.44 34.48 28.99 26.53 27.97 25.42 23.34 30.94 34.15 36.67 37.70 28.13 36.90 39.41 39.76
50.52 50.94 51.28 50.41 50.21 50.81 51.83 49.83 47.10 44.09 36.10 40.74 42.63 37.44 37.87 39.27 35.34 35.33 33.93 38.82 36.92 38.77 29.37 27.88 22.80 25.34 31.11 26.45 22.34 21.89 26.52 28.80 30.87 30.35 27.02 27.53 33.88 36.18 38.62 28.70 30.29 38.49 38.10 39.76
50.05 50.29 50.96 50.62 50.15 50.35 51.66 49.58 50.08 46.82 38.12 41.66 45.52 44.98 41.97 40.63 38.23 33.83 37.87 37.38 34.73 35.29 32.51 28.51 28.73 19.68 27.81 27.38 30.61 27.51 26.80 22.52 21.00 25.47 24.97 21.99 35.87 37.29 32.70 37.10 39.36 39.96 40.15 38.78
49.41 49.87 50.10 50.39 50.21 50.21 50.44 48.89 49.92 48.72 44.06 42.80 46.93 48.01 47.30 45.81 44.74 41.24 37.04 38.38 37.04 35.83 32.76 32.25 29.07 25.70 28.72 29.12 29.39 32.27 28.42 31.86 30.46 32.87 29.20 35.64 39.26 40.41 41.12 41.63 39.98 38.28 37.63 39.66
49.13 49.31 49.87 50.14 50.33 50.48 50.49 48.28 47.31 45.32 37.17 41.89 43.83 43.30 47.62 51.37 48.82 48.32 39.76 34.10 41.12 38.31 39.18 32.84 31.31 27.00 29.97 32.16 32.10 29.08 36.28 38.67 33.78 34.29 36.63 39.71 42.39 42.67 42.48 41.71 41.21 39.58 39.14 38.46
48.86 48.91 49.33 49.53 49.78 50.08 49.84 47.65 46.62 44.86 39.78 33.71 38.68 45.05 45.03 48.48 49.80 47.95 47.72 45.40 44.03 41.27 37.77 33.34 32.30 33.17 39.13 33.65 37.21 35.83 37.89 39.07 36.63 35.58 40.28 40.13 40.37 40.30 41.22 40.50 40.71 39.84 39.63 38.81
49.13 49.76 49.28 49.12 49.73 49.51 48.76 48.10 48.66 48.90 45.08 35.25 37.00 42.78 45.57 46.96 47.40 46.57 45.83 45.90 43.26 39.37 36.45 33.53 34.60 34.74 35.91 34.06 34.38 34.32 38.98 37.41 33.28 35.05 40.34 41.19 41.71 42.16 42.90 40.00 38.98 39.25 37.90 36.36
48.55 48.90 49.26 49.60 49.16 49.61 48.49 44.41 46.59 48.33 50.08 38.94 34.60 40.49 39.55 42.84 44.45 44.41 43.06 44.57 42.89 41.65 40.09 35.15 38.49 41.83 38.02 32.82 33.93 37.86 40.90 42.12 43.42 41.26 43.98 43.36 41.71 40.32 39.41 37.60 36.80 36.58 36.03 35.53
48.05 48.37 48.72 49.08 48.85 50.95 47.88 43.28 44.75 48.28 46.59 35.90 34.62 34.36 34.97 38.92 41.51 40.63 41.10 41.96 40.53 41.07 39.97 36.61 37.12 37.59 41.23 32.97 34.53 39.36 41.13 42.03 42.50 42.53 42.14 37.54 37.57 36.17 38.11 37.82 37.29 36.18 35.57 35.03
48.05 48.23 48.23 48.59 48.75 48.75 46.53 46.48 48.73 49.38 43.91 39.13 34.24 34.72 33.29 39.00 34.50 34.26 38.40 35.13 37.82 40.50 39.99 36.75 34.60 36.45 34.44 33.50 38.08 39.03 39.98 40.61 39.11 38.10 38.34 37.23 38.95 38.22 36.85 35.10 33.59 31.71 30.91 31.61
48.17 48.19 48.15 47.47 45.70 42.03 43.96 47.27 47.54 46.84 43.67 36.43 32.81 33.35 33.17 40.08 36.29 34.72 32.52 35.16 32.97 36.87 32.79 34.06 36.11 32.96 33.43 36.67 34.71 34.61 35.54 35.63 35.62 36.30 35.83 35.64 32.33 31.78 32.08 31.68 30.71 29.47 29.20 30.02
47.81 46.14 42.24 35.53 39.13 46.80 46.95 43.74 39.79 38.56 36.43 37.06 33.18 35.93 33.86 40.58 33.34 32.81 33.70 32.61 32.25 31.63 32.48 34.70 32.23 32.31 36.99 34.60 36.01 36.20 35.31 35.54 35.28 31.97 31.12 30.56 30.13 30.45 30.54 30.86 30.24 30.00 29.53 30.28
42.63 37.65 35.16 42.00 46.51 42.26 37.99 33.68 34.05 34.38 32.81 33.67 33.68 34.16 34.38 37.80 33.46 32.79 33.14 31.65 31.30 23.21 24.05 30.09 27.83 26.38 30.56 32.20 32.03 32.57 32.94 33.09 32.58 32.36 32.10 32.34 32.65 31.48 31.14 30.32 29.62 29.12 28.44 28.56
42.45 42.36 43.65 41.69 39.60 34.74 34.79 31.87 31.49 32.22 29.66 32.38 32.17 33.41 36.03 33.86 38.25 32.88 31.87 29.04 28.69 23.11 27.07 26.35 19.67 25.59 30.33 31.56 31.26 31.39 32.30 31.96 31.64 32.43 32.20 32.27 32.21 32.18 31.05 30.20 29.74 28.38 27.70 24.24
40.78 37.83 34.90 36.31 32.88 30.56 29.99 25.09 28.72 29.10 31.62 32.75 32.76 32.01 32.76 33.56 34.09 30.91 29.04 23.33 21.21 23.61 20.97 19.34 22.34 27.98 28.98 29.11 31.01 31.53 31.79 30.16 28.46 29.71 29.90 29.90 29.60 29.15 26.23 27.16 27.74 25.91 26.34 27.71
32.97 30.57 30.70 29.10 27.66 29.57 29.02 28.96 23.60 27.05 32.41 32.61 32.76 30.91 30.18 28.87 27.69 26.48 19.31 21.32 21.44 21.45 14.85 15.37 21.14 27.10 28.19 29.00 29.73 29.83 29.78 25.88 25.34 28.23 28.96 26.93 25.75 25.96 26.10 23.60 24.31 22.95 24.07 26.69
30.25 27.31 23.97 27.44 27.29 29.45 32.23 32.25 32.79 32.43 33.73 32.75 31.25 29.21 27.34 25.27 21.83 23.87 19.04 20.34 17.85 18.96 15.98 16.20 22.95 27.84 28.96 29.09 29.75 28.93 26.44 24.24 24.48 28.93 26.34 24.25 24.15 23.86 25.45 26.85 25.08 24.08 23.01 24.04
28.33 25.36 20.43 27.02 29.08 28.57 30.47 32.07 32.08 33.86 32.70 30.10 27.15 19.91 19.78 17.84 16.61 14.62 17.73 15.28 13.64 15.58 13.88 20.10 24.28 28.44 29.11 29.06 28.01 28.25 28.16 27.56 28.36 28.51 27.28 27.02 23.67 23.93 27.49 27.31 25.42 24.57 23.41 23.82
21.59 19.28 28.63 21.87 20.30 22.98 24.97 31.65 31.75 33.89 30.92 25.71 21.70 14.61 15.46 17.63 10.46 12.84 17.70 12.78 15.24 16.51 19.84 22.71 26.36 28.48 28.93 28.85 28.20 26.33 26.87 28.04 27.51 27.74 26.98 26.99 26.62 23.83 22.06 23.12 27.97 26.42 26.02 23.97

GFSNW_sfc_wetblb_003.txt.gz
Wetbulb
52.43 52.43 52.47 51.75 51.79 51.63 50.37 45.84 44.34 51.73 52.18 43.00 38.90 38.22 41.70 43.41 44.34 45.95 44.91 44.34 43.08 41.40 41.01 39.93 39.83 39.49 41.33 43.63 44.82 40.91 41.62 37.00 33.45 36.62 41.19 42.81 41.52 38.57 37.22 32.33 29.19 33.09 31.00 31.83
52.35 52.11 50.63 50.65 51.82 51.55 49.92 45.92 46.27 50.25 50.20 37.43 34.82 42.61 42.87 43.71 43.85 42.82 43.40 42.85 43.77 43.37 40.17 37.40 40.99 41.67 45.02 44.47 44.54 42.16 42.08 36.15 30.59 32.34 37.50 40.16 39.16 39.66 37.22 35.51 34.10 31.86 29.52 32.48
52.24 50.63 50.51 50.95 51.47 51.53 48.20 44.69 41.58 44.75 44.44 42.85 41.30 40.40 40.98 41.46 44.29 43.35 43.58 42.66 44.10 41.91 39.89 41.68 39.85 41.02 44.51 45.15 44.56 43.80 43.36 36.74 33.59 30.08 32.93 36.66 34.87 36.69 37.76 37.54 33.43 32.89 33.64 35.65
51.50 49.89 49.81 50.13 51.16 51.09 48.96 44.42 41.76 43.48 37.58 40.76 41.66 42.32 42.24 40.88 40.23 43.95 44.17 42.64 42.23 40.74 36.39 38.48 39.07 41.53 42.48 43.34 43.91 43.50 42.19 36.04 35.87 36.44 37.51 36.85 36.52 36.26 36.75 35.57 36.83 32.91 35.75 36.12
50.00 49.73 49.99 50.25 50.85 50.77 46.86 44.45 43.38 42.59 40.44 41.65 41.35 38.43 41.28 41.20 41.71 42.50 41.96 41.22 42.48 42.49 38.84 39.44 37.92 41.54 40.63 40.17 42.73 41.23 39.74 34.97 35.38 32.99 35.15 34.73 32.78 35.69 36.10 36.62 36.89 36.56 37.17 36.45
50.04 49.53 49.62 50.43 50.59 50.58 47.23 45.53 45.38 44.89 36.58 37.06 37.53 37.56 41.22 41.90 43.06 42.86 44.06 43.14 41.19 37.61 42.39 44.70 45.44 44.79 43.12 43.24 41.18 38.90 38.23 35.30 32.54 29.67 32.48 32.51 29.81 33.47 35.44 36.69 37.98 37.66 33.59 38.76
51.29 49.12 49.43 50.29 50.20 50.25 49.12 47.14 44.06 40.90 35.07 33.78 37.49 41.53 42.30 41.56 42.71 41.64 43.44 43.74 39.57 43.91 46.61 45.14 42.32 38.89 38.00 39.97 40.19 41.26 33.37 32.86 31.97 30.92 32.36 25.59 36.55 39.49 39.47 37.37 38.33 38.85 37.94 38.83
51.52 50.95 50.51 50.17 50.16 50.90 49.96 47.09 44.76 40.61 33.37 35.60 38.07 40.95 41.00 41.87 42.18 41.64 42.89 45.11 44.32 45.89 42.37 36.63 32.75 32.71 31.07 32.65 37.15 37.46 37.80 34.42 31.24 29.41 29.42 32.13 36.21 38.55 36.82 35.62 35.93 39.13 39.32 40.81
50.77 50.77 50.38 50.20 50.06 50.77 51.23 48.80 45.52 42.96 36.53 38.45 42.43 40.92 41.41 37.21 36.80 38.29 41.90 45.50 44.90 42.80 35.36 33.91 29.74 29.61 29.95 32.39 33.64 35.96 35.72 33.11 34.07 30.73 27.78 25.53 34.88 38.00 40.31 40.29 32.85 40.80 41.45 41.44
50.27 50.45 50.51 50.02 49.80 50.57 52.05 50.21 47.99 44.62 38.28 42.31 43.35 40.56 40.34 40.95 38.96 38.01 37.83 42.55 40.38 42.10 34.29 31.90 32.26 33.31 32.91 31.20 26.88 26.88 30.24 30.87 30.32 30.92 28.99 32.07 37.38 38.68 40.29 31.50 34.05 39.84 41.48 42.06
49.83 49.88 50.31 49.94 49.70 50.00 52.05 50.37 49.75 47.36 39.63 43.37 46.58 45.55 42.12 41.88 40.67 37.92 40.36 40.27 38.67 37.13 33.37 33.19 32.96 31.11 33.22 32.39 33.61 31.24 31.39 30.15 27.62 28.00 26.96 25.36 38.34 38.66 36.57 40.30 40.58 41.44 41.20 41.09
49.39 49.48 49.61 50.19 50.02 50.12 50.76 49.89 49.58 48.61 45.64 44.88 48.91 50.61 49.21 48.04 46.09 42.42 39.32 41.36 39.18 39.84 34.87 33.47 32.98 31.53 29.04 31.66 32.02 35.04 31.96 35.14 33.37 33.32 33.85 39.34 40.35 41.56 43.07 42.11 41.12 40.13 39.55 39.17
49.10 49.02 49.20 50.04 49.97 50.18 50.47 49.10 48.07 45.70 38.84 43.13 45.77 45.95 48.89 51.66 49.80 49.67 42.55 38.90 42.84 40.67 41.73 36.93 34.33 33.37 33.76 31.36 31.64 33.85 37.07 38.96 36.30 35.51 39.95 40.41 42.38 43.08 43.50 42.25 41.43 40.37 40.74 39.27
48.74 48.57 48.88 49.48 49.64 49.59 49.55 48.93 46.95 45.43 39.66 34.28 40.70 45.74 46.67 50.13 51.34 50.52 49.18 45.68 44.05 42.38 40.56 34.46 33.37 33.19 39.57 34.40 38.51 37.21 40.18 39.81 37.11 36.42 41.02 41.34 41.81 43.04 44.30 41.37 41.59 40.00 40.40 39.82
49.35 48.20 48.74 48.79 49.69 49.50 49.28 48.93 49.65 48.45 46.72 36.71 38.02 44.26 46.58 47.54 49.09 49.06 47.89 46.64 44.30 41.51 37.36 34.28 35.18 37.84 37.56 36.09 34.99 34.40 40.80 39.71 37.17 36.36 41.39 41.72 41.38 43.27 43.06 40.10 39.27 39.09 37.76 37.19
48.41 48.92 49.06 49.69 49.12 49.13 49.00 45.21 47.85 49.25 49.38 38.96 35.91 42.05 41.29 43.51 46.25 46.71 45.99 46.24 44.45 43.49 40.73 35.55 39.98 43.01 39.88 33.01 32.77 40.12 42.08 43.82 44.21 41.69 42.81 41.22 40.62 40.47 40.38 38.12 37.51 37.51 37.64 36.74
48.23 48.40 48.74 48.92 48.53 51.32 48.37 44.04 46.06 48.30 47.22 37.00 35.00 35.47 37.64 40.76 41.82 41.23 41.43 43.13 43.13 43.74 41.59 36.80 38.17 39.70 41.34 33.19 33.91 40.30 42.08 42.99 42.47 42.47 41.15 36.79 37.56 36.32 38.06 38.23 37.76 37.22 36.73 36.26
48.00 48.21 48.41 48.56 48.64 48.60 47.13 48.48 48.39 48.26 44.26 40.21 34.20 34.46 34.86 40.30 36.16 35.53 39.09 37.31 39.83 41.69 41.13 37.34 36.81 37.55 36.45 33.84 39.33 38.85 38.69 40.35 39.05 38.56 39.68 38.76 37.75 36.62 36.25 36.90 36.15 34.68 33.77 33.49
48.21 48.00 48.48 47.98 46.26 42.76 45.16 47.56 47.79 47.58 44.17 37.00 33.37 33.55 33.73 39.73 36.80 35.62 35.25 36.76 33.91 37.99 33.55 34.44 36.67 34.46 33.41 35.97 34.84 35.74 36.40 37.42 35.94 36.22 34.99 35.54 35.14 35.62 35.77 35.33 34.77 33.29 32.86 33.01
48.01 46.84 43.41 36.07 39.66 46.97 47.27 44.13 40.77 38.22 37.51 37.54 33.55 36.28 34.82 40.57 34.64 34.09 34.82 33.37 32.83 32.46 33.82 34.90 32.28 32.86 35.81 34.64 36.74 36.94 36.16 36.59 36.51 33.59 32.81 33.99 33.62 33.66 33.77 33.70 34.46 33.30 32.33 32.44
43.06 37.85 35.35 42.18 46.62 42.76 38.70 33.69 34.35 34.55 33.01 34.58 34.33 34.21 34.58 38.08 34.35 33.19 32.81 31.92 32.10 28.12 28.88 31.28 29.94 29.59 32.10 33.75 33.56 34.38 34.87 35.67 35.41 35.78 35.25 34.56 33.39 32.69 32.68 32.78 33.16 32.42 31.62 31.07
43.36 42.44 43.77 42.01 40.01 35.47 33.49 31.72 31.68 32.42 31.42 32.95 32.98 33.49 36.02 34.25 38.22 33.08 31.68 29.83 29.59 22.80 29.18 29.04 26.01 29.39 32.51 33.83 34.07 34.42 34.40 34.03 33.39 33.59 32.64 32.41 32.07 32.65 31.83 31.63 31.25 30.75 30.43 28.89
42.18 38.85 34.92 36.40 33.11 31.35 30.90 28.44 29.88 30.59 32.45 32.96 33.14 32.07 33.35 33.55 34.45 31.24 29.45 25.55 24.86 26.78 25.19 23.89 26.34 30.20 30.47 31.34 32.61 33.30 33.88 32.23 31.04 32.26 32.23 32.36 32.04 31.33 28.56 28.71 29.30 28.33 28.85 29.64
33.76 32.99 30.67 29.75 29.28 30.04 26.46 26.22 27.30 29.81 32.81 33.01 32.99 30.71 31.04 29.72 28.71 27.45 24.59 23.67 24.11 22.17 19.77 20.77 25.94 29.24 29.96 30.87 31.97 31.57 31.49 26.90 26.85 30.04 30.90 29.26 27.96 27.76 27.46 25.22 26.20 25.53 26.71 28.96
29.58 29.94 26.91 28.62 27.65 31.39 32.42 32.64 33.01 32.63 33.82 33.16 31.32 30.09 30.26 25.61 24.67 24.34 22.44 22.34 20.15 21.10 20.96 23.91 27.29 29.93 30.54 30.94 30.82 30.96 28.21 25.86 26.59 30.96 29.35 27.09 26.33 26.17 27.24 28.48 28.09 28.42 26.22 25.74
29.14 26.21 24.77 27.72 27.01 28.82 31.90 32.28 32.10 34.00 32.21 30.97 29.53 24.29 25.47 23.26 22.56 21.00 18.55 18.29 17.11 21.87 22.64 25.39 27.27 29.57 30.44 30.63 30.00 29.69 30.01 29.20 29.63 30.05 29.26 28.84 26.66 25.34 28.89 28.47 27.66 26.46 25.98 25.87
23.76 21.87 25.85 24.07 24.67 27.93 30.16 32.24 33.19 34.60 32.10 26.11 24.44 22.33 22.26 21.28 18.03 18.45 20.25 18.00 22.09 22.94 24.83 25.55 27.47 29.71 30.37 30.49 29.56 27.19 27.87 28.96 29.40 29.75 29.33 29.04 28.79 26.08 25.46 26.43 30.15 29.65 29.29 28.39

GFSNW_sfc_wetblb_009.txt.gz
Wetbulb
52.31 50.57 50.59 51.82 52.07 52.29 54.08 59.62 51.87 62.38 64.07 52.78 55.29 50.34 49.84 48.32 50.70 52.50 50.82 51.22 49.44 48.06 47.87 46.38 46.15 45.33 47.83 50.17 50.03 45.90 47.57 45.28 40.40 42.22 47.28 48.97 47.66 45.14 44.01 38.70 35.14 38.93 36.96 37.19
50.65 50.60 50.50 51.13 51.58 51.95 62.70 56.12 55.75 62.24 61.98 50.47 51.97 51.13 49.51 50.84 50.23 50.07 50.17 49.00 50.44 50.95 48.29 44.38 47.17 47.36 49.96 50.46 49.46 47.58 48.17 44.58 38.70 40.75 44.90 47.28 44.35 45.54 44.55 42.55 40.93 36.20 35.23 37.80
50.19 50.56 50.60 51.20 51.61 52.07 60.49 57.19 52.58 55.83 57.72 56.60 52.08 49.80 49.07 47.90 51.42 50.21 51.35 50.19 51.53 49.81 47.34 49.35 46.65 46.84 48.81 50.18 49.94 45.18 48.09 44.78 40.09 36.70 39.94 43.09 40.52 42.25 43.37 42.64 37.20 37.81 38.55 40.88
50.12 50.56 50.70 51.21 51.47 51.73 60.52 58.93 54.23 54.88 50.30 52.33 52.79 52.27 50.66 48.23 46.82 50.78 51.83 49.23 49.41 48.55 44.97 46.48 45.51 47.66 47.71 48.25 45.15 48.55 47.82 40.14 42.83 43.20 43.29 43.06 42.01 41.69 42.31 40.85 41.48 37.49 40.31 41.16
50.17 50.23 50.87 51.14 51.27 51.31 60.92 55.24 54.32 55.75 54.54 53.63 52.14 47.99 49.40 48.41 48.13 49.46 47.96 48.27 49.57 49.12 45.88 45.19 43.96 45.65 45.41 44.80 48.17 47.20 47.34 41.09 41.42 38.75 42.77 42.14 39.91 42.03 42.58 42.50 42.58 42.34 42.51 41.65
50.25 50.48 51.32 50.73 51.09 52.73 60.43 59.42 59.12 57.08 47.06 52.31 50.99 50.24 49.84 49.43 50.91 49.87 51.23 50.77 48.86 47.39 48.45 51.18 51.64 51.56 50.30 48.88 46.95 44.79 44.57 42.93 39.17 35.56 40.98 39.03 35.63 41.01 41.63 42.34 43.77 43.07 38.88 43.33
50.91 51.66 51.04 50.41 50.81 52.24 61.85 59.82 59.51 55.76 49.16 51.30 50.63 50.22 50.87 50.11 50.28 49.01 51.13 51.45 49.67 51.06 54.49 53.57 52.14 50.45 49.31 49.14 48.03 48.98 43.82 41.43 39.72 35.56 36.05 31.04 42.01 46.42 45.60 42.96 44.06 45.27 45.03 45.55
51.80 51.33 50.96 50.35 50.62 51.80 60.80 59.16 58.98 54.84 42.55 51.70 50.13 50.85 50.91 50.98 51.56 50.61 50.57 51.02 53.10 55.52 52.22 47.16 41.00 40.16 37.47 41.41 44.99 45.45 47.29 43.67 37.29 33.66 34.04 38.16 41.34 42.98 42.26 40.88 40.75 46.03 45.22 46.26
51.36 51.08 50.85 50.37 50.31 51.53 60.44 57.98 58.62 57.93 45.41 50.20 52.60 51.49 52.05 49.79 49.55 49.58 49.31 52.51 55.00 54.32 50.24 43.81 36.60 37.10 39.18 39.15 40.83 44.45 44.11 44.76 41.22 36.26 30.99 29.92 40.59 45.37 46.62 46.01 36.85 46.46 46.05 44.80
51.18 51.15 50.78 50.58 50.48 51.07 59.60 59.32 59.24 58.58 54.27 53.32 53.91 51.54 51.38 53.43 51.89 49.69 50.61 50.58 49.74 53.27 44.64 39.28 39.75 39.88 42.62 37.69 35.70 34.10 36.62 36.82 35.87 34.80 33.11 37.07 44.35 45.08 46.81 35.01 38.46 46.90 45.71 43.90
51.07 51.05 50.72 50.41 50.19 50.65 57.09 58.91 59.47 58.57 53.87 52.62 53.46 53.70 52.64 52.82 52.84 49.22 51.53 49.79 50.11 49.61 38.95 39.67 41.95 38.17 42.28 40.51 42.08 39.37 37.68 36.97 33.53 35.85 32.44 29.99 45.98 44.70 39.08 44.95 47.47 46.41 44.38 44.07
50.55 50.82 50.61 50.82 50.13 50.37 52.13 59.46 58.94 59.33 57.45 54.62 56.62 56.16 56.24 56.35 56.32 53.77 52.88 50.58 50.40 50.70 47.13 43.51 43.06 36.38 37.81 40.42 37.32 45.25 38.48 42.30 40.52 40.13 40.17 47.00 47.45 46.48 49.04 47.95 45.89 45.25 43.21 43.25
50.21 50.27 51.67 50.90 50.54 50.50 52.52 60.31 60.00 59.98 56.03 54.77 54.51 53.13 55.99 57.46 57.78 59.60 52.16 53.82 53.27 52.42 54.94 48.98 43.80 35.14 44.29 35.30 40.32 44.17 45.12 47.81 43.05 42.02 44.62 45.55 46.31 48.03 48.08 47.48 45.56 44.02 43.44 45.19
49.66 49.98 50.31 50.76 50.27 50.46 51.55 59.30 58.51 58.50 53.07 40.21 52.36 54.12 54.42 56.37 58.34 57.69 58.09 55.65 55.29 54.96 53.42 42.50 38.40 38.76 48.49 41.73 45.06 43.90 46.18 46.54 43.90 43.41 46.06 46.14 47.64 46.63 46.68 45.50 45.49 44.90 45.60 43.75
48.71 49.06 49.02 49.92 50.69 50.90 57.60 59.76 58.79 58.68 55.97 46.78 50.86 52.93 53.14 54.90 56.44 56.08 56.17 55.20 53.35 52.05 44.93 38.22 40.31 48.48 47.70 46.28 43.71 43.26 46.84 45.17 42.80 41.20 46.25 45.00 45.05 46.54 46.70 45.51 44.49 44.19 42.32 41.87
48.04 49.38 49.34 50.15 50.54 50.77 58.86 54.77 59.12 58.59 58.51 51.97 44.53 52.63 50.77 52.85 54.67 54.82 54.35 54.53 54.13 53.16 48.40 41.84 49.07 51.47 47.94 36.41 38.57 44.99 47.59 48.67 49.17 46.42 47.91 46.26 45.30 44.81 46.03 44.56 43.22 42.85 41.97 42.29
48.57 48.87 49.20 49.42 49.58 57.17 54.79 52.87 54.25 51.58 59.63 50.00 44.02 47.44 48.85 49.80 52.72 53.32 52.99 53.68 52.84 51.66 48.54 46.12 46.89 48.33 47.69 40.40 38.62 44.73 47.24 48.19 47.77 47.77 45.78 40.50 42.77 42.50 44.00 43.20 42.37 42.62 42.51 41.64
48.21 48.41 48.61 48.91 48.58 50.02 53.63 56.38 51.94 54.15 55.53 52.65 42.39 41.59 44.89 48.94 46.71 44.89 48.88 47.25 47.90 48.94 48.78 44.41 43.90 47.47 45.04 38.57 44.24 46.65 47.46 45.86 44.04 43.62 43.88 43.11 44.20 43.98 42.59 42.66 41.69 39.37 38.81 39.17
48.17 48.33 48.57 50.71 50.46 49.26 53.55 48.19 51.22 56.99 53.73 46.57 37.13 37.13 36.59 47.83 42.95 43.20 43.27 44.83 39.13 45.60 39.31 41.28 43.56 40.02 37.72 42.62 44.44 45.09 44.51 43.29 40.74 42.86 43.85 43.36 41.24 40.41 39.85 39.14 38.72 37.70 37.60 37.77
47.79 48.48 45.98 38.76 43.44 47.90 48.81 52.56 49.64 46.02 47.10 47.78 38.76 46.07 39.60 46.06 40.36 37.86 38.95 40.03 37.99 34.78 38.06 38.63 33.51 34.88 42.86 44.71 44.96 45.46 44.73 45.30 44.75 41.11 39.53 39.41 37.82 37.48 37.53 37.70 38.43 37.99 37.06 36.79
44.79 39.67 36.39 43.59 47.01 45.72 42.81 37.48 38.22 39.98 36.23 39.31 41.75 42.73 40.65 45.08 38.97 36.59 38.58 35.32 35.14 33.51 35.76 35.36 35.67 35.19 41.16 43.99 42.34 43.37 44.16 44.18 43.61 42.71 40.80 38.78 37.80 37.40 37.26 37.41 37.65 36.80 36.47 35.77
44.05 43.60 45.01 43.69 40.47 36.49 38.04 33.87 33.51 34.40 35.72 35.95 34.90 37.52 41.35 38.63 41.58 35.12 33.10 32.78 33.69 32.60 39.08 33.91 31.33 39.37 41.89 42.15 42.27 42.86 43.32 42.51 40.20 38.95 37.88 38.10 37.96 38.35 37.96 37.36 36.40 36.35 36.04 34.49
44.00 37.59 34.02 34.23 32.40 31.15 31.51 30.05 32.60 32.42 33.69 34.09 34.19 32.95 34.75 35.41 37.06 32.96 34.05 32.06 33.14 37.52 31.17 30.91 36.97 40.78 40.97 42.54 42.16 41.44 41.66 39.82 37.01 37.23 38.00 38.21 38.02 37.98 36.43 35.76 36.41 35.42 35.47 36.05
35.19 32.78 31.69 32.42 31.88 32.78 34.04 35.14 34.59 35.50 35.86 34.78 34.23 33.14 33.69 33.87 33.33 34.05 32.24 32.38 34.19 28.99 27.42 30.99 38.83 39.37 40.80 41.99 41.70 40.54 38.90 36.13 35.23 35.74 36.57 36.68 36.88 36.39 36.42 34.41 34.49 33.45 33.41 34.97
34.74 35.35 30.97 31.69 33.33 34.23 33.51 34.59 35.32 36.13 38.15 37.31 37.42 36.90 37.99 34.23 32.24 33.96 31.40 28.36 27.52 30.00 31.66 36.24 39.19 40.06 39.95 37.98 37.38 36.80 35.34 35.18 35.30 36.57 35.97 35.41 35.50 35.28 35.13 36.54 36.39 36.09 34.23 33.67
35.15 33.74 32.06 33.33 33.51 32.42 32.60 33.14 32.96 37.06 37.25 38.72 38.58 34.31 32.96 31.66 33.04 29.43 29.67 29.27 27.63 32.32 36.22 39.10 38.21 36.27 36.50 36.62 37.33 36.93 36.89 35.76 35.70 35.66 35.43 35.44 35.35 34.01 35.37 36.42 35.04 33.87 33.33 32.60
34.62 32.06 35.68 34.59 34.78 33.87 33.14 35.68 35.82 38.64 36.41 33.14 34.67 30.61 30.16 31.06 29.94 28.92 32.53 30.35 34.31 36.75 37.13 37.85 36.93 36.10 36.37 37.81 37.67 35.56 35.94 35.89 35.79 35.64 35.62 36.04 36.49 36.22 34.97 33.30 36.02 36.54 35.82 33.87

GFSNW_sfc_wetblb_012.txt.gz
Wetbulb
51.16 50.46 51.04 51.62 52.18 52.65 55.16 61.85 50.16 63.28 65.76 51.38 52.47 50.67 50.40 48.49 50.41 52.79 51.38 51.55 49.40 48.03 47.97 46.61 46.42 45.97 48.09 50.31 50.04 45.80 46.70 45.14 41.90 42.56 47.24 48.28 46.79 44.52 44.02 38.95 35.98 39.83 37.35 35.74
50.40 50.28 51.23 51.69 51.83 51.89 61.19 55.21 55.80 62.77 62.77 49.71 53.45 51.74 50.35 51.38 50.00 50.23 50.16 49.16 50.82 51.44 48.63 44.83 47.56 47.84 50.37 50.89 49.66 46.54 47.41 44.90 39.35 40.28 44.76 47.06 43.27 45.15 44.47 43.65 41.21 35.41 33.31 36.15
50.27 50.40 51.16 51.64 51.77 52.48 58.65 57.57 51.82 54.41 55.89 57.28 52.52 50.14 48.83 48.35 52.51 51.13 51.83 50.79 51.43 49.80 48.02 49.77 46.75 46.62 49.26 50.54 48.89 46.49 48.05 44.69 40.89 36.81 39.47 42.84 40.13 42.06 43.38 42.19 37.29 37.02 37.42 39.40
50.16 50.44 51.18 51.51 51.75 52.04 58.58 58.38 53.42 53.75 49.00 51.39 52.52 52.19 50.34 48.31 47.32 51.59 52.23 49.57 49.56 48.73 45.51 46.80 46.19 48.19 47.19 48.44 45.84 48.17 47.87 41.22 42.81 42.51 42.76 42.86 41.77 41.27 41.86 40.41 41.19 36.12 39.25 39.95
49.90 50.64 51.60 51.21 51.44 50.67 58.70 55.56 54.32 55.73 54.06 54.03 51.94 48.47 49.53 48.71 49.24 49.88 48.42 48.10 49.92 50.18 47.08 46.49 45.05 46.71 46.21 45.65 48.10 47.04 48.19 42.10 41.90 39.52 42.97 41.79 39.11 41.07 41.39 41.69 41.99 41.58 41.94 40.96
50.21 52.00 51.26 50.83 51.23 53.63 59.95 59.83 60.30 56.85 49.26 52.52 51.65 50.80 50.18 49.87 51.24 51.05 52.23 51.19 49.96 47.41 48.97 51.09 51.28 51.30 50.60 48.90 47.43 45.81 45.49 43.75 39.76 36.02 39.44 38.85 36.29 41.11 41.71 42.34 43.57 42.74 38.39 43.27
52.79 51.91 51.13 50.51 50.90 52.20 62.18 61.27 59.79 56.19 50.70 52.31 50.44 51.41 51.66 50.44 50.91 49.10 51.54 52.13 49.73 51.30 54.02 52.97 51.78 50.62 49.60 49.76 48.32 49.57 43.48 41.70 39.58 35.20 35.99 31.22 42.00 45.74 45.15 42.90 43.81 44.85 44.54 45.50
52.26 51.61 51.09 50.50 50.62 51.81 61.38 60.78 59.91 55.13 41.10 52.35 51.38 51.19 50.90 51.99 51.74 50.81 50.80 51.93 53.39 55.06 52.19 47.25 39.94 40.47 38.11 42.02 46.16 45.86 47.79 43.17 35.02 34.19 33.03 37.17 40.65 43.45 41.84 40.26 39.69 45.31 45.11 45.32
51.64 51.38 51.04 50.55 50.54 51.35 61.10 59.24 60.52 59.18 47.29 51.69 53.09 51.17 52.19 50.04 50.37 49.69 49.83 53.81 56.15 54.07 50.64 43.56 37.24 37.87 40.68 38.65 40.49 45.60 45.43 45.98 41.49 34.51 30.77 28.24 41.17 45.17 46.97 45.71 35.81 46.46 45.59 44.30
51.62 51.32 51.11 50.62 50.52 51.09 58.30 59.63 61.51 59.75 55.42 54.69 54.73 52.27 51.72 53.72 52.09 49.47 50.33 50.59 50.64 53.74 44.31 36.93 39.83 40.85 43.18 37.76 35.60 34.75 35.39 37.91 35.06 34.81 31.89 36.21 43.97 45.80 46.93 34.41 37.61 46.14 46.09 44.42
51.93 51.21 50.99 50.54 50.28 50.59 56.02 59.68 60.89 59.26 54.27 53.80 55.66 55.54 54.79 53.69 53.75 49.73 51.70 49.97 51.64 50.60 38.74 39.10 42.95 38.38 42.27 41.57 42.67 37.82 35.13 35.27 32.73 35.43 32.54 30.07 46.38 44.92 39.05 44.79 47.84 46.82 45.57 44.47
51.56 52.23 50.85 50.94 50.54 50.52 51.97 59.11 59.85 60.88 58.07 54.66 58.24 56.98 57.42 56.00 55.31 55.05 54.11 50.93 50.61 51.02 46.16 45.07 44.85 35.75 37.56 39.94 38.45 45.01 39.03 42.91 40.49 39.55 38.90 47.17 48.96 46.23 48.09 47.65 45.89 45.15 44.76 44.17
50.74 51.57 51.60 50.96 50.70 51.01 52.40 60.01 60.03 61.19 58.02 54.58 54.28 53.15 56.53 58.70 58.15 60.53 52.55 55.82 54.44 53.37 55.37 47.24 42.27 34.21 43.56 34.68 40.44 43.01 44.99 47.09 43.90 42.92 44.94 45.72 47.37 48.44 48.72 48.04 46.19 45.81 45.29 44.68
50.36 50.87 51.45 50.98 50.91 50.96 51.61 59.14 59.45 59.16 52.85 38.38 52.91 56.18 54.83 57.32 58.47 58.02 59.11 57.35 57.40 56.64 52.28 41.03 37.47 36.39 48.25 42.43 43.81 43.70 45.27 46.39 44.07 43.28 46.20 47.22 47.39 47.72 46.85 46.12 46.32 45.42 45.69 44.34
48.24 49.02 49.02 49.56 51.78 51.17 56.35 60.14 59.38 59.21 56.31 45.40 52.21 54.05 55.06 56.06 57.14 56.42 56.76 56.82 54.91 52.58 43.79 36.75 38.56 48.47 48.64 46.94 44.74 43.35 46.08 43.76 41.67 40.70 46.94 46.45 45.86 46.37 46.27 44.99 44.59 45.24 42.68 41.91
48.29 49.16 49.27 50.08 50.12 50.05 58.94 54.09 58.79 58.59 59.32 51.41 43.08 53.63 51.88 53.82 55.22 55.25 54.34 55.03 54.67 53.16 47.72 41.88 48.19 51.55 48.60 37.47 38.38 44.99 46.96 48.05 48.50 45.67 48.84 47.90 46.85 45.89 45.96 44.99 44.24 43.28 42.12 41.87
48.13 49.07 49.06 49.23 49.30 56.86 54.06 51.38 52.69 50.88 58.07 49.62 42.55 46.92 49.83 50.75 53.70 53.68 53.32 54.34 53.13 52.01 51.25 46.97 46.62 48.72 47.96 37.47 37.30 44.67 46.92 47.78 48.37 48.64 46.86 43.33 43.81 42.22 44.30 43.58 43.06 42.35 42.00 40.49
48.58 48.64 48.64 49.05 48.44 49.87 53.62 55.11 52.93 52.73 55.75 52.92 42.73 42.37 45.66 50.07 48.55 46.11 49.28 46.72 48.32 49.13 48.07 45.22 44.72 48.07 42.84 37.65 44.35 46.16 47.27 47.79 46.58 46.00 45.86 44.86 44.84 44.41 43.91 43.35 41.62 38.90 38.15 38.40
48.31 48.49 48.58 53.12 52.76 52.26 54.41 48.53 50.25 58.30 54.00 47.26 36.57 36.93 36.39 48.97 42.82 42.44 44.19 45.88 37.84 46.69 38.20 41.29 43.35 40.37 36.93 42.27 44.16 45.43 47.13 44.94 43.71 44.49 44.33 44.07 43.39 41.90 40.87 39.40 38.49 37.30 37.07 36.96
47.95 48.96 46.07 39.47 43.80 48.45 48.90 52.93 51.34 49.38 51.46 48.64 38.56 46.16 40.67 45.83 40.80 38.20 39.06 38.38 37.80 34.94 38.50 40.26 34.57 36.87 43.64 45.86 46.81 47.49 46.10 46.07 44.92 42.29 40.59 41.27 39.54 38.67 37.62 37.50 38.12 37.62 36.51 35.94
45.42 39.83 36.75 43.53 46.90 48.30 45.14 41.10 41.63 41.77 37.29 41.95 42.04 44.51 40.09 45.39 38.46 36.39 39.29 34.94 36.02 33.30 35.59 35.99 34.40 34.07 40.39 44.62 45.54 45.43 46.20 46.17 45.33 44.56 43.47 40.76 38.83 37.29 37.10 37.90 37.63 35.90 35.36 34.73
43.88 43.41 44.76 43.51 40.21 35.87 36.93 34.57 34.75 35.30 37.92 38.12 35.27 38.19 42.66 40.46 45.29 39.14 35.20 34.03 33.12 31.85 38.13 32.94 31.95 38.73 43.55 43.82 42.93 43.72 44.54 44.21 42.61 41.34 39.00 38.62 38.04 38.36 37.77 37.20 36.12 35.17 34.43 31.63
42.80 37.90 34.71 35.91 32.20 31.30 31.49 30.57 32.03 32.94 33.30 34.31 34.33 33.27 35.81 36.16 37.93 33.12 32.94 31.49 31.85 36.35 32.73 30.63 35.74 40.50 41.76 43.02 42.77 42.65 41.58 38.12 38.26 38.40 38.40 38.21 37.42 36.52 34.98 34.02 34.82 32.97 34.23 34.75
35.51 32.58 31.49 32.03 31.67 32.40 32.40 32.58 32.58 33.67 33.85 34.03 34.21 32.94 33.85 32.94 32.58 32.22 31.67 32.94 34.72 30.19 29.06 30.02 38.33 39.69 41.14 42.51 42.64 41.04 37.18 32.06 34.16 35.40 36.38 34.39 35.25 34.86 33.43 32.75 32.45 30.75 32.21 33.77
35.54 34.39 30.95 31.85 33.12 33.49 32.94 32.58 33.67 34.18 36.11 34.56 33.65 33.67 35.34 32.40 31.67 32.58 32.22 29.17 28.46 30.55 31.07 34.43 38.51 39.34 39.08 37.93 39.05 35.81 33.89 31.83 33.33 36.48 34.30 31.94 32.31 33.07 33.73 34.49 34.81 35.10 32.54 32.10
36.66 34.84 32.40 33.49 32.94 32.40 32.22 32.03 32.40 36.57 35.10 37.11 36.75 32.58 32.22 31.67 32.58 30.27 30.36 29.58 28.22 33.12 36.70 38.93 36.93 36.05 36.19 36.16 36.04 35.97 36.33 35.02 35.24 35.27 34.26 33.38 32.34 31.24 34.36 35.09 34.11 32.78 32.68 32.14
32.62 33.38 36.20 34.57 33.85 32.76 33.12 34.94 35.12 38.98 35.12 32.40 34.03 31.49 28.50 32.00 30.30 29.29 32.47 30.91 33.95 37.19 37.73 36.14 36.12 35.25 36.02 36.78 36.51 33.95 34.61 35.53 35.85 35.46 34.73 34.60 34.31 33.68 33.47 32.67 34.58 34.66 34.55 32.61

GFSNW_sfc_wetblb_018.txt.gz
Wetbulb
49.55 49.76 51.54 51.70 52.10 52.41 52.39 50.29 41.92 55.15 52.52 40.13 42.45 41.08 47.14 46.50 46.95 49.47 48.06 47.29 46.36 43.73 43.91 42.89 41.98 41.63 43.36 46.71 45.80 39.97 41.79 37.34 30.11 37.81 42.34 43.49 41.05 39.46 37.94 27.51 29.44 27.62 26.10 28.37
49.64 49.35 51.27 51.47 51.61 52.27 51.73 47.47 48.30 55.73 50.19 34.11 34.48 44.83 47.35 47.97 46.38 46.43 46.39 45.90 47.26 47.01 43.47 40.02 43.36 43.12 46.48 45.72 43.88 41.14 41.14 35.57 28.34 34.00 39.11 41.47 38.28 40.39 40.82 36.37 30.33 28.62 20.93 26.19
49.35 49.84 51.08 51.34 51.54 52.13 53.43 49.75 40.44 46.26 48.14 45.99 43.54 44.31 43.94 44.68 48.43 47.65 48.16 46.62 47.47 45.17 43.05 44.77 41.74 42.33 45.99 45.36 43.51 44.37 44.44 38.48 33.39 29.31 33.52 35.98 33.27 36.87 38.66 35.91 26.47 28.34 28.53 32.81
49.51 50.18 51.18 51.10 51.40 51.39 52.20 50.53 43.51 44.05 36.97 40.13 43.65 46.12 45.62 44.06 43.48 47.34 47.73 45.25 45.65 43.85 38.57 41.50 40.48 43.15 43.43 44.79 44.00 43.71 41.40 34.23 36.32 36.60 37.73 37.40 35.89 35.54 35.64 34.67 34.29 29.45 32.34 34.19
49.69 51.34 50.89 50.72 51.01 51.68 51.43 49.14 47.74 45.21 40.53 44.36 44.46 43.48 44.27 44.30 45.57 45.58 44.28 43.16 45.35 44.72 40.63 41.82 40.01 41.98 40.87 39.93 42.13 41.26 42.14 32.11 32.92 32.16 37.60 37.25 33.56 36.30 36.19 35.84 36.37 35.68 35.69 35.38
51.24 51.26 50.48 50.27 50.75 51.78 52.19 52.19 51.75 47.19 42.76 40.77 41.03 42.38 44.82 45.72 46.89 46.40 47.86 45.71 42.58 39.99 43.46 44.11 43.85 43.95 44.65 44.18 41.49 40.52 37.83 31.98 27.83 26.32 32.75 32.63 26.36 34.42 36.63 37.14 37.55 36.66 31.39 36.72
51.66 50.91 50.10 49.92 50.64 52.60 57.44 55.11 52.43 44.69 37.53 41.74 42.66 47.36 47.27 46.00 46.18 44.46 46.91 46.31 42.31 46.41 48.42 44.30 42.90 41.46 42.55 44.06 43.51 43.14 34.40 31.98 26.84 22.17 23.36 17.03 35.66 40.39 40.21 37.86 38.82 39.61 38.98 39.02
50.77 50.30 49.76 49.65 50.06 51.12 53.92 54.05 52.22 43.78 34.27 44.22 45.44 45.98 45.78 46.38 46.46 45.30 46.01 47.26 47.17 47.70 43.92 33.49 31.59 30.49 32.63 35.51 41.70 42.22 40.08 29.91 25.73 19.79 23.56 27.95 35.59 38.92 37.62 35.29 34.51 40.96 39.67 39.74
50.13 49.85 49.82 49.70 50.15 51.19 53.15 52.60 54.05 46.36 39.63 40.29 49.18 44.88 46.14 41.76 41.09 41.86 45.01 49.34 49.84 45.47 33.98 29.56 26.59 25.20 29.50 31.44 36.18 40.13 39.00 32.51 26.63 26.69 17.12 15.16 30.06 39.85 42.48 40.62 29.15 41.59 40.92 39.70
49.97 50.01 49.86 49.77 50.01 51.06 54.21 52.32 54.43 51.30 43.38 46.90 48.05 43.64 43.93 46.16 42.88 40.51 43.23 44.17 42.90 42.77 27.84 29.81 25.20 29.43 35.88 29.72 28.62 26.49 27.57 24.94 22.73 16.89 16.23 26.07 35.54 41.42 42.29 28.35 29.79 41.53 41.11 39.79
49.72 49.85 49.79 49.66 50.04 50.41 53.94 51.94 53.90 51.08 44.06 46.45 50.71 50.64 46.65 46.81 44.02 38.43 43.19 40.34 39.13 35.22 29.60 27.16 31.25 25.09 31.19 31.01 34.94 31.79 28.70 26.09 24.61 25.45 16.90 21.59 39.85 40.57 33.49 36.24 40.43 41.84 40.48 40.51
49.63 49.49 49.71 49.73 49.97 50.25 53.25 50.36 54.66 55.00 49.24 47.83 51.54 51.68 51.14 50.67 49.18 46.40 43.78 41.14 41.76 40.23 34.64 33.23 35.44 27.04 32.67 29.51 28.17 38.03 30.78 32.16 29.56 31.83 30.92 38.07 41.03 40.68 41.22 43.05 41.54 40.54 40.26 41.45
50.19 48.93 47.21 48.17 49.90 50.61 53.16 52.13 52.70 51.54 43.63 45.67 47.46 47.97 52.31 53.77 52.49 52.21 43.74 42.57 48.29 45.58 43.18 37.79 32.78 27.34 33.54 29.06 31.71 32.71 38.04 41.18 32.81 34.53 39.30 39.91 41.84 42.79 43.85 43.25 42.06 42.27 42.65 42.61
48.82 47.91 48.13 48.53 48.15 49.88 52.82 51.83 52.17 48.60 43.34 34.92 43.31 51.89 49.91 53.67 53.70 53.63 51.94 50.42 49.55 46.08 41.59 35.57 33.80 29.27 38.06 29.90 33.05 31.74 36.05 39.99 37.68 34.13 39.08 40.97 42.51 42.33 42.40 42.37 42.76 42.98 44.83 44.02
48.55 48.62 49.12 49.45 49.20 49.12 53.20 52.36 50.81 51.90 46.60 37.78 38.86 48.64 51.03 52.13 52.37 52.14 51.60 50.05 47.43 41.74 36.29 33.29 33.30 31.87 34.74 33.51 31.95 31.63 40.38 38.09 33.76 33.20 39.53 39.60 40.65 42.04 43.31 42.52 43.19 44.55 43.76 39.11
48.58 49.26 49.65 49.40 49.16 50.31 52.94 47.46 51.84 49.90 50.90 40.49 34.05 44.75 45.98 47.80 50.44 49.91 49.80 48.97 47.23 43.87 38.47 34.69 37.68 43.96 36.01 33.32 34.06 39.40 43.41 44.82 43.64 40.69 43.61 43.77 43.11 42.98 44.29 43.85 44.52 44.81 40.10 36.39
47.68 48.95 49.23 48.71 48.56 49.89 48.28 44.50 48.96 48.66 49.48 38.90 35.86 35.71 43.46 45.70 47.45 44.49 45.44 46.17 45.03 44.27 37.95 35.45 35.14 36.71 40.59 33.41 32.35 39.94 43.16 44.55 44.20 44.60 42.96 40.19 40.95 40.53 44.36 45.49 42.07 38.21 35.54 34.63
48.02 49.39 49.50 49.54 48.76 49.65 49.08 49.41 48.66 49.12 46.40 41.06 34.25 32.81 36.30 44.83 37.06 37.26 42.15 38.17 41.70 41.75 40.53 38.54 35.75 37.08 34.33 34.35 40.12 42.67 44.54 44.67 43.82 42.97 42.34 41.80 42.68 42.28 42.07 40.20 36.24 34.54 32.66 32.49
48.54 49.00 49.82 48.71 47.37 43.97 48.35 47.55 47.32 50.92 46.12 37.38 33.06 33.35 32.20 41.69 38.96 36.90 35.44 39.20 33.27 38.42 35.84 35.83 38.50 34.54 35.10 38.32 40.07 42.04 43.10 41.78 41.48 41.58 42.15 42.95 42.12 41.90 37.09 35.69 34.44 32.54 31.83 31.92
48.47 47.64 43.46 40.94 43.04 47.12 47.73 45.97 41.23 40.14 40.85 39.66 33.82 37.97 34.68 40.33 34.18 34.01 34.16 33.64 33.83 33.47 34.21 38.49 33.09 34.39 39.44 39.59 42.00 42.34 42.50 42.52 42.63 40.63 40.04 41.00 35.78 34.40 34.47 34.08 33.78 33.22 32.06 31.70
45.23 40.69 37.09 42.96 46.37 44.12 40.50 36.95 36.45 37.28 35.09 37.79 37.57 36.77 35.52 37.80 34.19 34.18 33.70 32.73 32.73 31.02 29.59 32.59 27.17 31.09 34.43 39.49 39.93 41.65 42.60 42.81 40.93 41.59 41.11 37.31 35.94 34.65 33.74 32.94 31.67 31.21 30.55 30.37
43.88 43.19 44.27 42.26 39.34 36.20 36.34 33.98 34.00 33.98 33.77 34.25 34.53 35.07 38.68 35.98 38.42 34.48 33.62 32.08 32.32 28.53 34.50 32.16 28.92 33.01 37.78 36.20 36.36 36.87 37.55 37.30 36.41 37.13 36.05 35.70 34.71 34.03 31.70 29.86 29.45 29.82 29.59 25.16
42.50 38.67 34.84 37.09 32.82 32.56 33.12 32.78 31.71 32.19 32.32 33.61 33.45 33.64 33.45 35.28 36.38 32.73 32.52 31.45 30.34 33.57 31.24 29.51 30.85 37.86 36.52 34.71 34.73 34.60 35.61 34.51 34.23 34.77 35.09 34.62 33.33 32.44 30.31 28.60 29.68 25.90 29.28 30.27
35.08 33.64 30.20 31.78 29.37 30.11 30.09 31.00 31.78 32.16 32.19 32.55 32.55 31.96 32.52 32.19 32.55 31.98 30.48 31.04 31.24 28.63 25.32 22.67 32.67 36.55 37.08 35.10 34.89 33.67 32.37 30.06 31.53 32.14 31.91 31.20 30.40 29.67 28.25 26.47 25.71 22.35 26.40 28.75
33.02 30.76 28.50 27.28 30.46 31.81 32.16 32.17 32.17 32.50 33.95 32.91 32.35 32.34 33.41 31.42 30.27 30.68 29.16 27.07 25.61 27.49 26.61 30.51 32.31 34.56 34.24 32.00 32.18 30.91 29.60 29.64 30.65 31.04 29.91 27.23 26.37 26.54 28.19 28.26 28.00 28.91 24.91 24.30
32.68 32.10 29.90 31.42 31.49 31.43 32.02 32.02 31.84 34.28 32.90 33.27 32.68 31.24 30.48 28.24 28.99 27.31 27.10 26.34 24.49 28.30 31.25 31.72 32.39 32.53 32.51 32.41 33.44 32.76 32.67 31.76 31.35 31.16 31.36 30.14 26.15 23.25 29.12 29.16 27.51 25.17 24.29 25.64
31.26 30.29 32.71 32.34 31.54 31.42 32.03 32.58 32.73 35.83 33.08 30.48 30.79 22.46 23.70 28.81 26.77 26.54 29.93 27.31 30.48 32.28 32.37 31.94 32.02 31.86 31.73 32.04 32.13 30.71 31.63 31.84 31.59 31.32 30.36 29.98 29.91 25.69 25.97 26.89 30.72 30.06 29.95 26.89

GFSNW_sfc_wetblb_021.txt.gz
Wetbulb
49.81 49.52 51.34 51.87 52.20 52.21 52.14 47.43 38.56 52.76 48.45 39.35 40.14 40.09 45.44 46.23 45.01 48.10 46.69 45.82 44.32 41.36 42.10 40.94 40.34 40.02 41.49 44.84 44.18 38.58 40.13 35.77 29.69 35.38 41.05 41.94 39.18 37.34 35.65 26.25 28.22 26.42 24.95 27.33
49.56 49.36 51.33 51.67 51.83 52.33 50.83 45.07 48.27 54.27 47.00 32.55 33.58 41.78 45.90 45.92 44.50 44.72 44.96 44.14 45.43 45.11 42.12 38.58 41.26 41.55 44.56 43.33 42.51 39.73 39.53 34.47 27.97 32.90 37.68 39.38 36.97 38.42 37.35 33.85 29.64 27.71 20.73 26.40
49.30 49.05 50.87 51.48 51.76 52.01 52.17 45.41 39.93 44.69 46.62 41.98 40.05 41.31 41.99 42.76 46.92 45.89 46.18 44.73 45.85 43.24 41.91 43.06 40.04 40.76 43.99 42.72 41.72 44.24 42.90 36.70 31.95 28.71 31.79 34.69 31.71 34.95 36.79 34.13 26.12 27.38 27.17 29.91
49.46 49.65 51.32 51.51 51.56 51.39 51.87 47.72 40.99 42.90 37.25 40.41 43.53 44.32 43.75 42.29 41.71 45.58 45.90 43.58 44.03 41.93 37.77 39.40 38.80 41.50 41.43 42.09 43.34 42.22 39.68 33.05 34.21 34.42 35.57 35.28 33.98 34.14 34.73 33.66 33.04 29.04 30.80 32.19
49.61 50.95 50.93 50.93 51.06 51.14 49.75 47.84 43.65 43.00 38.27 41.99 42.24 41.98 42.74 42.91 43.67 44.14 42.45 42.14 43.49 42.60 39.87 40.84 39.02 40.24 38.44 36.54 40.86 39.97 39.88 30.95 31.53 31.69 35.37 35.38 31.88 33.87 34.18 33.83 34.04 34.28 33.40 33.81
51.08 50.80 50.22 50.59 50.96 51.62 48.28 49.07 49.89 45.17 40.12 39.68 40.07 41.03 43.77 44.38 45.05 45.03 45.65 44.47 41.50 38.34 41.64 43.05 42.69 42.27 42.93 42.31 40.16 38.67 35.35 30.77 27.06 24.22 30.67 30.88 24.27 32.09 35.59 35.48 36.17 35.56 30.24 35.47
51.03 50.24 49.81 50.09 50.86 51.85 53.43 52.89 49.04 43.01 35.73 37.61 39.77 45.16 45.15 44.59 44.69 43.30 44.68 44.64 41.52 44.58 45.25 42.84 41.90 40.43 41.41 42.94 41.87 41.18 33.34 29.43 24.57 21.11 22.91 16.66 32.35 37.87 38.17 36.23 36.89 37.94 37.13 37.93
50.49 49.76 49.60 49.66 50.64 52.09 54.62 52.56 48.75 42.15 33.90 41.77 43.43 44.75 44.43 44.75 45.12 43.89 44.59 45.95 45.45 46.11 39.96 33.05 32.15 29.73 31.90 34.60 40.23 38.86 37.82 28.94 24.93 19.65 21.43 27.32 33.11 37.17 35.69 34.58 33.78 39.05 37.89 37.76
49.67 49.44 49.43 49.38 50.48 52.42 54.18 52.53 50.06 45.34 41.05 41.31 46.81 44.16 44.03 40.31 39.39 40.80 43.47 47.79 47.12 42.68 31.65 28.86 24.85 24.05 28.96 30.29 34.75 38.78 35.51 30.49 25.80 24.38 15.97 15.22 29.55 37.45 40.70 38.80 28.85 39.93 39.49 38.03
49.61 49.35 49.29 49.71 50.37 52.61 52.85 52.03 51.91 48.63 42.21 45.38 46.42 42.76 42.66 43.70 41.10 39.01 42.14 43.29 40.97 40.46 27.07 23.17 24.52 28.33 33.26 28.82 27.39 26.14 27.19 22.98 21.81 14.83 16.16 25.57 33.83 39.79 40.43 28.86 28.88 39.85 40.46 39.79
49.48 49.41 49.28 49.55 49.85 51.59 51.83 51.39 52.40 49.40 42.78 46.03 49.31 49.12 45.43 44.69 42.51 37.63 42.01 39.86 38.22 32.28 29.15 25.92 26.71 22.86 30.34 29.96 32.96 31.37 29.37 27.74 23.85 24.88 17.69 22.02 38.20 38.23 33.18 36.75 37.28 41.49 40.47 40.26
50.11 46.75 47.29 48.44 49.79 50.88 52.13 50.73 53.51 52.34 47.35 47.22 49.96 50.30 50.11 49.20 47.30 44.63 41.90 41.52 39.94 39.42 32.68 28.48 30.48 24.98 32.85 28.27 26.75 35.65 29.19 31.79 29.22 30.42 30.14 37.00 38.72 38.34 39.97 40.64 40.52 40.62 40.39 40.65
46.60 47.65 48.01 48.36 49.20 51.49 52.40 51.53 51.13 48.26 42.59 44.87 46.68 46.93 51.14 52.57 51.22 50.49 42.33 40.47 45.14 42.16 40.36 35.99 34.49 25.68 30.27 28.31 30.29 31.00 36.21 38.61 31.34 33.00 37.06 37.80 39.09 40.63 41.85 42.01 41.27 40.81 41.62 42.11
47.90 48.08 48.61 48.39 49.58 51.48 51.99 50.85 49.98 46.01 40.97 34.76 42.21 50.50 48.93 52.30 52.83 52.13 49.91 48.35 46.01 43.27 39.61 33.66 33.15 27.52 36.03 29.27 32.46 31.79 35.68 38.04 35.66 32.81 37.28 39.39 41.87 41.93 42.25 42.12 41.98 42.43 43.22 42.96
48.44 49.02 48.86 48.74 50.06 51.21 51.80 49.98 49.02 50.03 44.99 36.54 37.67 47.19 49.29 49.64 51.62 50.79 50.10 48.27 45.32 40.57 35.71 33.15 32.79 30.99 33.89 33.42 31.83 31.77 38.43 37.22 32.00 32.64 38.44 39.16 38.88 41.96 42.45 41.42 41.14 42.57 42.69 39.63
48.85 48.70 48.88 48.55 49.76 51.84 49.03 44.16 50.06 49.77 48.06 40.23 34.74 43.58 44.97 47.02 49.19 48.65 48.45 47.90 45.09 42.18 38.43 34.37 35.93 39.88 34.87 33.23 33.74 38.90 41.48 42.72 40.85 38.74 40.88 40.75 41.26 41.34 42.58 42.11 43.19 43.20 38.11 36.14
48.62 48.50 49.04 48.42 49.37 49.31 45.62 40.97 47.07 48.10 46.98 38.61 35.93 33.60 41.93 44.13 45.42 43.03 44.49 44.51 43.71 42.81 38.69 34.16 35.35 36.62 39.46 33.77 32.38 38.99 41.68 42.70 43.03 43.21 42.04 38.64 40.33 40.29 43.63 44.02 40.54 37.68 35.71 34.77
48.62 49.63 48.48 48.39 49.08 49.15 47.95 48.48 47.51 47.67 43.70 39.12 33.05 31.77 34.84 43.57 37.26 36.96 41.51 37.96 40.58 40.45 38.80 37.82 36.74 36.26 35.08 33.06 38.84 41.24 43.03 43.05 41.92 42.22 41.87 41.30 41.80 42.67 40.75 37.10 35.58 33.80 33.08 32.73
49.05 48.90 48.34 47.95 46.44 44.43 47.18 47.13 47.09 48.33 44.51 35.65 32.74 31.35 31.03 40.52 38.15 36.53 36.35 38.87 33.86 38.73 34.98 35.15 36.26 34.03 32.59 37.88 39.19 40.37 41.24 41.00 40.66 41.09 41.10 41.21 39.76 35.83 35.73 35.25 34.93 33.04 31.76 31.96
47.71 46.64 41.99 34.93 43.64 47.04 46.84 44.58 39.63 38.87 40.38 37.59 32.76 36.95 33.90 40.13 34.06 33.88 33.82 33.50 35.48 33.51 33.50 38.61 33.14 34.46 37.71 37.87 39.11 40.65 41.35 41.85 41.68 38.30 37.87 35.65 34.56 34.99 35.37 35.38 35.06 33.81 32.73 31.65
42.92 41.86 37.14 43.15 45.93 43.07 38.61 35.82 33.51 37.64 35.31 37.59 36.37 35.81 35.38 38.53 34.48 33.51 31.96 32.76 32.41 31.69 29.60 33.68 30.53 31.23 33.50 36.45 37.06 37.78 38.24 38.66 38.52 39.47 37.41 36.96 35.96 34.05 32.94 31.71 32.17 31.79 30.95 30.43
42.45 41.66 43.37 39.85 37.14 34.16 34.26 33.08 33.86 34.00 33.26 34.15 34.22 35.10 38.57 35.84 37.30 34.71 33.68 31.46 31.99 28.57 33.23 31.85 28.70 31.06 32.57 33.25 34.02 35.12 35.80 35.68 35.19 35.97 35.09 34.88 33.76 33.24 31.76 30.70 29.57 29.62 29.31 25.68
43.26 39.08 35.53 38.02 33.63 33.27 33.12 31.58 31.48 31.99 32.19 33.47 33.14 33.50 33.14 35.06 36.01 32.94 32.73 31.46 30.08 32.62 30.93 29.40 31.13 35.05 34.26 34.98 36.67 36.51 37.29 35.94 35.44 35.30 34.99 34.18 32.68 32.03 30.47 29.62 30.31 27.84 29.78 30.18
35.59 34.22 31.13 32.35 29.94 29.95 30.53 31.25 31.82 31.84 32.20 32.41 32.59 32.20 32.55 32.22 32.53 32.00 30.71 31.10 31.10 28.51 24.16 21.66 31.66 33.78 34.47 32.75 31.62 31.97 30.34 29.80 33.27 32.43 31.14 30.15 29.62 29.29 28.14 27.51 27.03 25.51 27.95 29.13
32.69 30.74 27.34 27.19 30.18 31.55 31.82 32.03 32.38 32.40 33.62 32.76 32.55 32.37 33.27 31.45 30.48 30.53 28.45 27.12 25.28 25.87 23.17 29.82 31.67 32.58 33.47 31.41 32.36 32.77 31.88 30.74 30.59 30.05 29.35 26.78 25.72 26.40 28.11 28.29 27.77 28.13 22.41 22.62
32.83 31.79 29.72 31.22 30.75 31.10 32.06 32.19 31.88 34.13 32.77 32.77 32.73 31.25 28.65 27.91 28.81 24.91 24.01 24.33 22.55 26.54 30.56 31.66 32.56 33.00 33.11 33.15 34.23 34.56 34.33 31.63 30.82 30.90 31.10 29.68 25.77 24.32 28.99 27.88 26.36 22.65 21.88 22.24
31.63 30.33 32.41 32.14 31.81 31.67 32.08 32.44 32.59 35.59 32.94 30.35 30.58 19.90 22.09 28.38 23.90 24.65 29.58 25.87 29.29 31.51 33.23 31.92 33.41 33.19 32.22 31.94 31.89 30.00 31.26 31.15 30.27 30.07 29.68 29.64 29.24 24.77 25.22 26.26 29.98 29.53 28.93 23.86

GFSNW_sfc_wetblb_024.txt.gz
Wetbulb
52.33 51.08 49.87 50.24 51.54 51.91 51.32 43.63 37.86 51.70 46.76 39.32 38.26 38.60 43.71 45.80 43.32 46.03 45.26 44.38 42.14 39.78 40.13 39.07 38.55 38.32 39.95 42.36 42.77 37.82 38.64 34.91 29.71 33.73 38.99 40.28 37.38 35.28 33.96 25.47 26.97 25.68 24.31 26.04
51.09 49.64 49.66 51.52 51.65 52.57 49.62 45.34 47.63 52.83 45.60 32.48 32.95 40.07 43.85 44.60 42.91 43.38 43.39 42.54 43.91 43.50 40.57 37.42 39.47 39.93 42.98 41.74 40.62 38.78 38.97 33.58 27.98 31.47 35.59 37.32 35.26 36.69 34.99 32.13 29.26 27.53 20.62 25.82
50.05 49.13 50.29 51.35 51.63 52.54 49.62 45.53 40.87 44.16 43.67 40.10 39.04 39.48 40.83 41.14 44.91 44.29 44.60 43.50 43.98 42.01 40.13 41.43 38.85 39.26 42.29 41.35 40.63 43.87 41.89 34.77 31.17 27.67 30.32 33.12 31.15 34.46 34.91 33.04 25.15 26.52 26.61 29.35
49.56 49.10 50.03 51.34 51.40 51.82 50.94 44.06 40.58 42.86 37.68 40.28 38.51 41.65 42.09 40.83 40.23 44.18 44.51 42.18 42.52 40.98 36.90 37.82 37.18 39.91 39.69 40.63 42.93 40.98 37.92 32.36 32.47 32.77 34.01 33.39 32.32 32.76 34.00 32.58 31.62 28.82 29.74 29.94
48.97 49.30 51.00 51.14 51.20 51.48 48.79 46.57 41.20 39.58 37.87 42.99 41.95 40.31 41.34 41.43 41.97 42.22 40.83 41.06 41.78 41.05 38.94 39.67 38.06 39.31 37.07 35.09 39.91 38.23 38.27 30.37 30.22 31.07 33.73 33.07 31.66 32.73 32.64 32.24 32.30 32.62 31.97 32.08
49.11 50.85 50.91 50.71 51.02 51.04 46.89 47.75 47.52 42.57 37.90 38.99 38.89 39.43 42.37 43.03 43.92 43.51 43.93 43.30 40.53 37.79 40.36 41.65 41.21 41.06 40.66 40.21 38.96 36.42 33.80 30.24 26.82 23.72 28.78 27.96 24.41 31.00 33.07 33.09 33.91 33.45 29.94 34.00
50.93 50.50 50.37 50.22 50.92 51.19 50.28 50.65 47.67 41.38 32.79 36.38 40.30 43.31 43.63 42.93 42.91 42.27 43.03 43.07 40.03 42.07 43.57 41.95 41.32 39.94 40.79 41.83 40.34 38.94 31.63 28.73 23.46 20.45 22.19 16.31 31.23 35.18 35.74 34.90 35.08 35.80 35.28 36.22
50.36 49.69 49.65 50.04 50.53 51.36 51.62 51.45 47.58 41.26 31.54 36.86 40.18 42.91 43.16 43.43 43.86 42.57 43.20 44.79 43.80 43.99 38.81 33.73 33.00 29.87 32.06 33.68 37.93 35.44 34.98 28.02 23.84 19.27 20.51 27.22 31.48 34.67 34.80 33.91 33.45 38.14 36.84 36.77
49.38 49.20 49.38 49.85 50.52 51.35 53.03 51.16 47.89 45.27 38.77 39.07 44.59 42.72 42.42 39.12 38.35 39.28 41.69 46.00 44.61 40.55 30.17 28.46 24.85 24.98 29.70 29.44 33.46 37.04 33.66 29.99 25.38 20.39 16.19 15.05 29.55 34.91 38.60 37.69 28.85 37.60 38.59 36.90
49.17 49.10 49.35 50.05 50.97 51.99 53.80 50.62 49.95 46.99 42.00 44.51 44.63 41.42 41.50 42.13 39.75 38.31 41.14 42.22 39.53 38.96 26.45 22.57 23.35 25.77 31.48 27.80 26.70 26.38 26.16 24.90 20.65 14.26 15.21 24.70 32.92 38.21 39.00 28.26 29.78 37.69 39.09 37.83
48.78 48.32 48.86 49.98 51.42 51.62 53.94 50.59 51.03 47.71 42.54 45.24 48.06 47.54 43.66 43.03 41.50 37.05 41.19 39.34 38.04 31.73 29.23 26.25 25.72 23.10 29.33 29.48 31.80 31.08 29.20 26.88 21.98 22.83 15.27 22.47 36.46 38.25 32.59 36.10 35.60 39.15 39.21 38.77
47.23 47.90 48.64 49.96 50.92 51.18 53.01 52.03 52.32 50.59 47.26 46.45 48.91 49.18 48.87 47.75 46.05 43.24 40.63 41.14 39.51 38.77 31.45 26.43 26.01 24.92 29.45 27.70 26.24 33.85 28.76 31.34 28.12 29.38 29.52 35.89 37.15 37.79 38.76 38.65 38.28 39.21 39.42 40.21
47.86 47.90 48.64 49.92 50.36 52.11 52.88 51.61 48.56 46.99 42.62 44.68 45.97 45.72 50.19 51.50 50.07 48.91 41.91 38.52 43.19 40.13 38.44 32.40 29.25 25.64 29.34 26.53 28.84 29.11 34.51 36.01 29.94 32.19 35.79 36.17 37.27 38.93 40.21 40.26 40.07 40.49 40.96 41.01
48.26 48.30 48.80 50.21 50.36 50.90 51.57 49.65 48.12 44.07 40.17 35.12 41.59 49.00 47.73 50.71 51.57 50.80 48.24 45.69 43.24 40.84 37.88 32.69 30.08 26.68 33.95 27.21 31.01 30.35 34.94 36.21 34.05 31.79 36.35 36.79 39.14 40.21 40.30 41.14 41.35 41.31 42.14 41.99
48.33 48.30 49.60 50.60 50.19 50.85 51.10 49.21 48.23 48.11 43.78 36.37 37.71 45.60 47.13 48.47 50.38 48.67 47.97 46.01 43.67 39.98 35.02 32.87 32.00 29.80 32.37 32.28 32.89 31.26 36.88 35.65 31.30 30.98 37.63 37.47 37.84 40.23 41.52 41.70 41.46 42.05 41.92 39.62
47.88 47.97 48.70 49.54 49.91 49.56 46.16 43.34 48.26 49.18 46.00 40.59 35.19 42.20 43.44 45.83 47.45 47.01 46.53 46.37 42.94 40.97 37.57 34.00 35.20 38.26 34.29 33.02 33.17 37.58 39.45 40.00 39.07 38.11 38.78 39.09 39.37 40.83 41.39 41.35 41.29 41.46 37.79 35.71
48.32 48.28 48.62 49.14 49.24 49.22 43.09 40.22 45.60 47.18 45.45 38.35 35.56 34.93 40.65 42.52 43.93 41.76 42.67 43.72 42.28 41.20 38.39 33.81 34.27 35.89 36.68 32.99 28.44 38.96 40.47 41.43 41.60 41.84 40.84 38.70 39.27 39.94 41.93 42.16 38.05 36.25 35.30 35.09
48.69 48.31 48.51 48.73 48.84 48.56 46.87 47.19 47.20 47.27 41.96 37.99 32.57 31.52 34.86 42.18 37.26 37.15 41.62 37.78 40.69 40.64 38.42 37.04 35.41 36.66 34.65 33.16 37.63 39.89 41.46 42.17 41.96 41.50 40.88 39.46 40.30 40.61 35.17 35.10 35.24 34.30 34.26 34.21
48.20 47.74 48.08 47.87 46.28 45.00 46.27 46.96 46.96 46.39 43.55 34.40 31.73 30.22 29.35 40.03 37.55 36.10 37.02 38.65 35.62 38.32 34.74 34.92 36.96 33.26 33.07 35.39 35.52 37.24 38.82 39.06 39.75 39.72 40.36 39.20 35.16 33.50 34.75 35.76 35.60 34.05 32.43 31.87
47.10 46.34 42.35 36.00 43.39 46.87 46.30 43.60 39.25 38.43 37.58 39.44 33.02 36.24 33.74 40.52 34.02 33.84 33.76 33.64 34.66 34.43 32.61 38.24 33.28 33.58 36.28 32.36 33.60 35.11 36.90 39.28 40.14 36.86 33.95 33.32 33.85 34.79 34.21 34.63 34.65 33.20 32.47 32.67
43.54 39.41 37.46 42.66 44.90 42.51 36.41 34.44 32.97 37.85 35.40 36.96 35.77 35.54 35.18 38.56 34.82 34.20 32.31 32.92 32.36 31.69 31.43 33.70 30.94 31.03 31.40 33.20 33.50 34.67 35.44 35.97 35.72 35.68 35.67 35.78 34.68 32.99 32.24 32.34 33.27 33.06 31.03 30.31
42.35 41.93 42.22 39.36 37.21 35.10 33.25 32.06 33.64 34.12 31.62 33.78 34.70 34.89 38.22 35.27 35.56 34.05 33.64 31.83 31.92 29.20 32.12 31.98 28.66 30.38 33.94 34.95 35.74 36.11 35.82 35.11 34.42 34.94 34.34 34.87 34.94 34.93 33.27 30.92 29.45 29.58 29.39 27.16
41.30 37.10 33.74 35.70 32.18 32.84 32.62 31.02 31.93 32.19 32.34 33.23 33.28 33.28 32.92 35.02 35.91 33.10 32.85 31.72 30.08 32.60 30.49 29.01 30.47 34.21 34.33 34.72 36.13 34.16 35.17 35.22 34.87 33.95 34.39 33.78 31.87 31.24 30.42 29.52 30.09 27.93 29.63 30.05
35.92 34.17 33.07 32.46 30.62 30.28 30.67 31.59 31.99 31.62 32.16 32.37 32.73 32.34 32.67 32.19 32.87 31.81 31.41 30.88 31.06 28.26 24.41 23.27 30.29 32.52 32.61 30.99 30.84 31.33 31.65 31.35 31.42 30.65 30.30 29.81 29.39 28.83 27.47 26.69 26.37 24.72 26.83 28.07
32.70 32.63 27.59 27.66 29.97 31.20 31.42 31.98 32.33 32.15 33.59 32.72 32.70 32.69 33.61 31.41 30.43 30.10 29.11 26.35 23.62 21.21 19.05 29.72 31.02 31.96 32.12 32.14 33.70 33.11 33.95 29.36 28.38 29.11 28.53 23.70 23.39 24.93 26.93 26.72 26.89 27.36 21.45 20.80
32.76 31.61 29.69 30.68 30.97 30.52 31.81 32.02 32.04 34.11 32.73 32.90 33.19 31.00 25.40 25.50 28.94 25.55 25.54 23.27 19.27 25.23 29.97 31.96 32.12 32.12 32.81 33.29 33.82 33.38 33.80 31.55 30.78 31.24 30.78 29.09 24.78 22.71 28.33 26.84 25.06 20.89 20.50 21.78
30.99 30.49 32.52 32.18 32.19 31.63 32.04 32.40 32.37 35.21 32.70 30.85 30.30 23.72 23.07 28.73 23.81 25.06 27.99 21.57 27.90 32.03 31.96 32.48 33.08 32.33 32.58 32.90 32.37 29.99 30.91 30.77 29.70 29.65 29.74 29.52 28.83 24.60 25.44 26.95 29.56 28.82 28.59 22.90

GFSNW_sfc_wetblb_027.txt.gz
Wetbulb
51.82 51.78 52.28 51.15 49.95 51.78 50.94 45.09 40.08 52.87 48.71 41.70 40.23 39.22 42.73 46.02 45.43 47.80 47.19 45.62 44.04 42.07 42.58 41.39 40.86 40.72 42.80 44.58 45.76 42.73 42.34 39.47 36.26 38.10 42.41 43.90 42.25 39.83 38.95 33.97 30.92 31.00 31.16 34.35
51.49 51.71 51.33 50.21 50.45 52.45 49.58 43.14 48.84 53.79 47.56 36.37 36.69 41.90 44.98 46.49 44.53 45.38 45.90 45.07 45.99 45.79 42.50 39.84 41.90 42.30 44.95 44.27 44.34 42.46 42.83 38.25 33.85 36.32 39.75 41.76 40.58 40.08 37.51 35.80 34.97 31.65 32.93 34.74
51.54 51.18 50.22 49.53 51.30 52.59 50.82 47.41 42.87 46.15 43.84 42.34 40.88 41.86 42.47 43.23 46.32 45.97 45.94 44.81 45.92 44.31 42.71 42.98 40.74 41.48 44.35 44.63 43.99 43.57 43.87 37.69 36.78 33.56 35.69 38.12 36.40 38.29 37.78 38.00 33.44 32.46 33.92 36.42
51.09 50.34 49.64 50.97 51.49 51.84 50.33 45.52 43.05 45.63 39.60 40.25 40.25 43.07 43.49 42.49 42.58 46.30 46.26 44.57 44.65 42.99 39.74 40.67 39.72 42.25 41.77 43.24 43.97 43.56 42.16 37.12 36.72 36.03 36.62 37.11 36.50 36.51 36.94 36.28 36.36 35.18 35.82 34.89
50.31 49.73 49.12 51.11 51.18 51.87 49.68 44.38 41.93 40.68 40.29 43.09 41.36 41.60 42.25 42.34 43.76 44.72 43.98 43.34 44.19 44.91 41.29 42.29 39.96 41.52 40.07 39.12 42.94 41.80 40.48 35.82 35.70 34.38 35.73 35.25 35.21 36.37 36.36 36.73 36.44 36.34 35.91 36.27
49.64 49.27 48.93 50.91 51.20 51.84 48.50 49.16 46.85 43.96 37.97 41.00 38.62 39.96 42.43 43.09 45.37 45.25 45.41 45.10 43.07 41.48 44.11 44.63 43.08 43.15 42.74 42.55 42.10 38.90 37.58 35.01 32.66 29.57 31.31 31.89 29.84 34.80 36.50 36.45 37.31 38.97 35.00 40.59
49.10 49.20 50.57 50.51 51.35 51.01 50.77 50.40 46.75 41.16 34.69 39.04 39.42 42.48 44.88 43.56 44.77 43.87 44.54 45.22 43.28 44.07 46.13 44.83 44.61 42.53 42.39 42.23 39.83 40.24 34.66 32.12 28.92 29.90 27.49 26.43 36.63 39.39 39.00 37.63 38.27 39.06 38.77 40.01
49.15 50.40 50.08 50.26 51.16 51.39 52.84 51.76 47.73 41.26 33.45 38.31 41.15 43.56 43.54 44.18 44.76 44.10 44.59 45.38 44.83 45.74 42.51 38.52 36.04 34.82 35.45 36.37 37.85 36.53 37.29 32.56 27.68 30.06 27.75 31.20 35.91 35.48 36.87 36.70 38.05 40.96 39.87 40.66
49.79 49.52 49.74 50.11 50.67 51.63 53.04 51.99 49.03 45.05 38.47 38.34 44.35 43.52 43.88 41.23 40.74 41.73 43.30 46.09 45.73 42.16 35.01 33.98 31.53 31.61 34.57 33.26 36.18 38.38 35.43 33.91 33.71 26.67 27.56 25.72 34.61 37.46 41.64 41.72 34.54 41.19 41.61 40.44
49.12 49.11 49.43 49.95 50.46 51.28 53.22 51.87 50.45 48.67 43.12 46.41 45.78 43.35 42.76 43.54 42.08 40.68 42.18 43.09 42.95 42.67 33.47 32.10 32.10 32.47 33.84 31.89 29.92 30.33 32.84 31.03 30.44 23.25 29.73 31.05 36.80 39.60 42.01 33.58 36.02 39.85 42.30 42.15
49.04 49.10 49.46 49.73 50.43 51.07 53.91 51.13 52.46 49.48 44.45 47.32 49.52 48.49 44.05 43.82 43.96 40.63 43.00 42.28 41.55 36.84 34.64 34.64 32.31 32.91 33.58 33.15 34.61 33.67 33.21 31.06 30.20 25.67 26.87 28.25 38.65 41.00 37.89 41.95 41.75 41.91 42.61 42.56
48.02 48.89 49.71 49.75 50.48 51.09 52.77 51.58 53.10 50.66 48.20 47.58 50.27 50.70 50.86 50.65 47.85 44.85 42.90 44.18 41.80 41.95 36.81 33.35 32.07 32.70 31.94 31.42 32.75 36.24 33.01 36.22 35.01 34.02 35.34 40.22 40.46 42.63 43.35 42.39 42.10 43.09 43.04 43.77
48.11 48.89 50.15 50.43 50.95 51.36 52.18 52.65 50.12 48.20 44.82 46.52 47.87 47.66 51.00 51.44 50.49 50.86 44.30 41.37 45.10 41.84 41.34 36.15 34.50 33.49 34.34 32.65 33.06 35.05 37.04 37.79 35.95 36.00 39.87 38.19 40.14 42.23 42.27 43.23 43.77 44.03 44.74 45.16
48.33 49.07 49.61 50.17 50.75 51.41 52.25 50.60 49.20 45.66 42.71 36.60 44.02 49.12 48.05 50.34 52.20 51.99 49.27 45.75 43.55 41.94 40.52 35.23 34.00 34.79 36.13 33.06 35.64 35.54 37.71 37.77 36.30 35.55 38.77 39.57 41.24 41.94 44.46 44.28 43.52 43.96 44.54 44.43
49.24 49.40 49.55 50.35 50.70 51.68 51.90 50.43 49.32 48.10 45.03 38.14 40.63 46.31 47.21 48.94 49.86 47.97 47.61 46.22 44.68 41.92 37.92 34.56 35.79 34.46 35.89 34.56 34.99 34.32 38.75 38.37 36.51 36.86 41.52 41.69 41.90 43.24 44.39 44.00 44.05 44.53 43.79 40.90
48.56 49.99 50.53 50.68 50.19 49.31 48.39 45.94 48.72 48.33 46.47 42.41 37.01 43.06 43.37 45.86 47.29 46.84 46.40 46.74 44.29 43.13 40.42 35.72 37.27 39.46 37.57 33.86 33.83 39.33 40.68 41.58 41.34 41.25 42.76 42.33 43.47 43.22 44.74 44.27 43.64 43.42 41.09 38.88
48.29 49.07 50.02 50.32 49.71 49.92 43.44 41.46 46.30 46.83 45.87 39.99 36.13 36.68 41.05 42.86 44.43 43.42 44.19 45.65 43.19 43.32 39.43 35.76 36.39 38.93 38.16 34.12 34.27 39.05 40.96 42.44 43.34 43.65 43.14 42.49 42.85 41.94 41.93 38.47 36.83 36.95 36.63 37.38
48.26 48.42 48.56 48.97 48.81 48.22 47.69 47.55 46.95 46.51 41.94 39.65 34.04 33.56 37.01 42.64 39.78 37.89 41.96 39.52 42.32 41.38 39.71 37.76 36.62 37.99 37.03 35.06 37.01 37.46 38.90 39.68 42.10 41.88 42.90 41.97 37.44 36.49 35.58 37.18 37.68 35.62 34.40 34.32
47.49 47.72 47.70 48.35 46.79 45.38 46.66 47.04 46.53 46.26 43.69 35.26 31.19 32.72 33.22 42.23 37.94 37.00 38.31 39.79 36.60 39.01 35.51 37.13 40.30 34.41 32.90 31.34 32.82 34.33 35.19 36.89 38.22 36.84 35.85 36.65 35.88 36.20 36.28 35.53 33.94 32.25 31.86 32.32
47.20 47.30 43.60 38.25 44.18 46.29 46.49 43.93 40.31 39.35 37.92 39.75 33.52 36.38 34.39 40.63 35.51 34.42 35.68 36.05 34.79 36.44 35.13 38.54 34.23 33.12 32.13 33.92 34.89 35.35 35.97 36.06 38.48 36.95 33.66 34.29 33.54 33.42 34.01 34.07 34.67 34.23 34.08 33.84
44.53 41.21 39.30 44.17 44.99 43.29 37.60 34.70 34.98 35.92 33.53 36.79 35.94 36.89 36.04 39.14 37.08 34.60 34.59 33.70 33.34 32.66 34.07 34.69 32.37 30.55 30.92 35.08 35.01 35.02 35.56 36.05 35.78 35.49 35.16 35.04 35.23 34.00 33.40 33.95 34.34 34.75 34.17 32.69
44.01 43.52 43.30 41.49 39.00 35.77 34.83 32.96 33.52 33.67 33.33 34.18 34.77 35.28 38.27 36.22 37.67 35.68 34.47 32.60 33.12 30.76 35.06 32.79 28.97 29.95 34.99 35.63 35.53 36.28 36.42 36.17 35.55 35.94 35.38 35.37 35.47 35.37 35.19 34.10 31.96 31.13 30.94 30.03
42.06 38.26 34.73 36.54 33.33 28.99 27.50 30.75 32.61 32.41 32.97 33.80 33.67 33.32 34.24 36.02 36.35 33.52 34.24 32.43 31.69 33.77 31.66 29.86 30.50 33.33 34.04 34.98 35.32 35.01 36.02 35.18 34.59 34.19 34.52 34.03 32.68 32.20 31.84 31.27 31.40 30.51 31.21 31.30
34.74 33.83 32.32 28.92 32.25 31.48 31.45 32.34 32.79 32.07 32.43 32.79 33.70 32.79 33.88 32.97 33.15 32.25 32.25 30.91 32.14 29.37 26.61 24.63 30.50 31.81 31.73 32.33 33.29 34.67 33.19 30.05 31.03 30.91 31.15 30.12 29.76 29.62 28.55 27.00 26.87 26.29 29.55 29.37
32.96 32.96 27.55 28.23 30.54 31.59 31.63 32.22 32.38 32.38 33.62 33.15 33.34 33.34 34.52 32.05 31.42 30.90 30.36 27.29 24.13 24.90 23.51 28.99 31.33 31.41 31.99 32.89 33.31 33.53 33.63 29.59 30.64 31.61 30.70 26.86 26.50 27.77 29.13 29.78 30.02 29.48 27.33 27.04
32.82 31.90 29.51 31.06 30.80 31.15 32.07 32.07 31.89 34.33 32.76 33.29 33.47 31.48 30.62 28.64 29.68 26.68 25.61 24.67 22.01 26.04 30.61 31.74 32.73 32.51 33.06 33.43 34.04 34.36 34.77 32.77 31.98 31.44 30.56 29.46 27.56 27.22 29.21 28.91 28.99 27.14 26.99 25.42
31.42 30.50 32.43 32.25 32.07 31.52 31.89 32.25 32.05 34.83 33.12 31.52 31.42 27.18 27.07 29.72 27.18 26.51 29.35 26.56 28.64 31.78 32.57 33.41 33.64 33.51 33.89 34.49 34.27 31.53 31.30 30.81 30.99 30.86 30.27 29.54 29.10 27.49 27.60 26.49 27.46 26.87 27.44 26.24

GFSNW_sfc_wetblb_030.txt.gz
Wetbulb
50.74 52.88 52.56 52.16 51.62 51.93 51.70 53.36 47.29 58.80 58.90 50.13 50.19 46.47 47.53 48.63 49.61 50.99 49.67 49.83 47.94 46.45 47.00 45.62 44.85 44.89 46.81 49.39 49.60 46.72 47.41 46.70 42.05 43.35 46.32 47.66 46.95 45.20 44.44 39.06 36.27 39.16 38.21 39.19
49.68 52.48 52.11 51.57 51.16 52.07 53.75 50.07 53.15 57.38 54.23 45.15 46.10 47.71 47.94 50.97 48.62 49.59 49.60 48.36 49.38 49.82 47.78 44.30 46.68 47.19 47.27 47.64 48.62 47.89 48.07 44.90 39.60 40.16 43.75 45.90 44.55 45.70 44.56 43.11 42.61 37.86 37.01 39.50
49.88 51.77 51.43 50.73 51.18 52.13 56.61 52.04 48.02 52.95 52.12 51.16 48.48 46.45 46.92 47.45 50.19 49.61 50.27 49.31 50.50 49.06 46.79 48.01 45.88 46.18 46.47 47.03 47.75 43.67 47.25 45.59 43.33 39.58 41.21 44.70 41.60 43.34 44.19 43.37 38.30 38.54 39.64 40.81
48.72 51.19 50.98 50.60 51.38 51.83 55.41 53.58 49.82 52.74 45.33 45.98 48.40 48.96 47.90 46.92 46.67 50.08 51.02 48.77 49.64 48.59 45.03 45.69 45.32 46.89 45.00 46.70 45.06 48.02 47.93 43.06 42.88 41.68 41.85 41.84 42.05 42.60 43.28 41.85 42.75 38.80 40.85 41.02
48.85 51.14 50.43 50.34 51.01 51.78 54.72 50.63 49.76 50.11 49.63 48.62 47.38 45.43 46.93 46.91 47.75 49.05 48.08 48.78 49.27 50.05 47.31 47.72 45.99 47.38 46.30 45.95 47.35 47.29 46.05 42.51 41.53 39.49 40.68 40.60 39.71 42.46 43.12 43.72 43.76 42.93 43.14 42.33
49.57 50.81 50.07 49.94 50.41 51.88 54.85 56.11 52.86 52.51 43.98 47.14 46.60 46.28 47.42 47.64 50.82 48.71 49.95 51.32 49.72 48.24 48.48 50.20 51.14 49.73 49.21 48.34 47.48 45.98 44.75 42.58 39.67 36.23 37.55 38.12 35.92 40.86 42.71 43.05 44.62 43.95 40.56 45.26
50.63 50.15 49.38 50.04 50.62 51.58 58.36 58.17 54.84 51.42 44.58 45.93 45.34 47.30 49.08 49.09 50.65 49.30 48.76 50.87 50.02 48.52 51.99 51.88 50.92 49.56 48.17 47.62 45.73 46.30 42.42 41.42 38.54 36.98 33.88 31.90 40.83 43.78 43.55 43.58 44.64 45.83 45.19 46.03
50.07 49.01 49.04 49.91 50.44 51.25 59.08 58.71 55.55 51.78 41.12 47.35 46.47 47.92 49.14 50.03 49.97 48.86 49.34 48.92 50.16 52.55 49.68 46.79 42.83 43.03 42.72 43.01 43.31 43.18 44.11 41.47 35.19 36.77 34.78 38.18 40.12 40.48 40.23 40.39 41.48 46.13 45.57 46.47
48.85 48.56 49.62 50.10 50.66 51.66 58.92 58.99 57.89 55.56 48.13 46.04 49.22 48.51 50.61 48.80 49.09 48.26 46.58 48.52 51.18 48.54 47.34 44.85 40.15 38.28 40.80 38.80 40.67 42.89 41.37 42.18 41.54 34.86 35.36 33.49 40.26 42.59 45.37 45.38 38.50 45.19 46.38 46.70
48.69 49.30 49.71 49.98 50.45 51.39 59.02 58.09 57.00 56.43 52.12 50.54 52.11 48.92 49.23 51.72 50.75 48.69 46.90 46.95 47.14 48.09 45.56 42.91 42.40 40.77 40.49 37.88 36.25 35.36 38.70 38.46 37.40 35.71 36.52 38.79 42.95 43.10 45.92 36.48 39.33 47.18 47.15 47.89
49.32 49.37 49.50 49.63 50.26 51.51 58.78 56.73 57.93 58.17 52.81 51.82 53.22 52.09 50.82 50.04 52.46 48.99 48.22 47.87 47.35 46.57 44.71 44.55 42.57 41.68 40.70 39.79 40.75 39.39 39.02 38.24 37.01 35.18 34.97 33.34 44.05 44.63 41.07 45.93 48.41 47.57 48.32 49.08
48.69 48.85 49.29 49.58 50.35 51.78 55.00 56.23 57.20 58.64 55.64 52.89 55.30 54.44 54.63 53.93 53.77 52.83 50.52 50.95 49.24 50.70 47.31 44.75 43.02 38.44 37.15 40.25 39.54 41.89 38.48 42.86 42.18 41.17 42.35 45.11 46.49 47.89 49.20 48.85 47.86 48.06 48.39 49.36
48.32 48.44 49.34 49.91 50.74 51.41 54.76 56.98 56.71 57.30 54.20 52.69 54.17 52.28 54.69 56.27 55.54 56.17 51.30 50.81 51.50 49.78 50.27 47.85 46.13 37.79 44.18 37.43 41.18 41.74 43.05 43.47 42.24 40.46 44.61 45.43 46.73 47.94 48.46 48.27 48.19 49.41 49.76 49.36
48.23 48.73 49.09 49.58 50.81 51.27 53.70 56.74 54.72 56.42 53.55 42.14 50.03 53.95 52.24 54.43 56.27 55.68 54.40 52.86 50.78 49.53 51.19 47.75 41.86 43.10 44.23 43.01 43.35 43.32 44.28 43.61 42.42 42.08 45.25 45.92 46.80 47.22 47.93 48.85 49.93 49.77 49.98 49.26
48.75 49.14 49.45 50.30 50.82 51.45 54.91 55.39 53.81 54.64 52.68 45.54 49.50 51.73 51.76 53.38 54.04 52.74 53.37 52.58 51.45 50.78 47.57 42.65 45.42 44.12 43.75 42.16 42.72 42.25 44.30 43.26 42.04 41.65 44.69 44.84 46.18 48.37 48.86 48.01 48.54 49.26 48.68 47.57
49.31 49.93 50.40 50.48 50.64 50.56 57.64 52.93 54.71 53.19 54.44 52.28 45.43 49.96 49.03 51.69 53.00 52.29 51.57 51.67 51.27 51.68 49.94 43.34 45.07 43.22 45.56 38.80 41.68 42.91 44.79 46.15 46.45 44.93 47.82 47.66 48.27 48.31 47.89 46.20 45.09 45.45 44.69 43.77
49.04 49.59 49.35 48.81 50.50 55.77 51.37 49.42 51.31 48.52 52.77 50.49 42.43 45.40 47.61 48.47 50.62 48.51 50.79 51.70 50.56 51.37 45.96 40.65 42.97 45.26 46.60 39.57 42.21 40.93 42.26 43.77 45.48 46.41 47.49 46.04 43.25 41.57 42.54 42.48 42.40 41.63 39.99 38.02
49.14 49.36 49.07 49.32 48.89 49.95 51.80 51.89 48.12 48.85 51.19 51.52 42.19 41.52 46.75 48.42 45.21 43.67 45.64 45.36 49.99 45.24 42.27 42.05 41.07 41.93 42.96 39.54 36.91 39.83 40.97 42.90 43.96 41.97 44.45 42.36 41.91 41.46 39.49 39.32 38.48 35.69 34.60 34.20
47.97 48.67 48.97 53.81 51.91 52.98 52.93 46.93 47.32 53.22 52.18 45.71 37.79 41.60 38.88 45.41 41.13 41.65 43.93 46.78 39.96 43.79 40.85 41.20 43.70 38.11 35.56 33.09 34.55 36.33 37.78 38.35 38.81 40.77 41.27 39.42 37.27 36.47 36.10 35.95 35.27 34.59 34.15 35.75
47.76 52.38 51.19 47.74 49.24 46.20 48.28 50.56 49.83 48.51 46.92 44.68 35.98 41.72 38.63 44.16 41.56 38.88 40.77 41.66 38.75 38.86 40.06 41.22 38.33 31.58 34.19 35.21 35.58 36.19 37.44 39.66 40.10 36.19 33.87 33.86 33.17 33.60 34.41 34.99 36.11 36.86 36.93 37.14
51.46 47.88 45.02 50.76 46.64 50.82 46.39 41.99 41.85 42.90 39.03 40.40 39.49 42.07 39.81 42.60 40.17 38.43 39.40 37.25 38.15 35.73 38.42 38.24 35.31 30.32 32.30 35.62 34.74 36.57 37.80 37.99 38.13 37.46 36.04 36.26 36.71 35.94 34.60 36.31 37.47 37.29 36.26 34.92
48.23 48.69 47.77 48.30 45.55 43.95 37.62 34.71 37.79 38.51 36.79 37.89 38.48 38.53 40.96 40.00 43.25 39.31 38.05 35.43 36.11 33.65 40.19 35.65 31.27 31.45 34.97 35.13 35.56 36.92 38.13 38.28 38.16 39.31 38.13 38.22 37.85 38.08 37.18 35.69 34.03 33.91 33.78 32.98
49.14 46.30 40.24 43.66 38.16 35.43 36.16 32.15 35.05 35.02 35.43 35.65 36.08 35.05 39.36 40.35 42.77 36.50 37.54 34.89 33.98 38.11 33.71 32.27 31.39 34.13 35.08 35.53 36.23 36.61 37.16 37.80 37.02 36.61 36.50 35.90 35.12 35.04 34.97 33.91 34.19 34.32 34.38 34.66
39.44 37.59 34.16 34.89 34.53 33.80 34.53 36.10 35.43 33.62 34.16 35.43 37.25 35.61 38.88 37.25 35.80 34.53 33.98 32.17 34.51 31.99 29.84 29.65 31.78 33.18 33.60 35.10 36.17 36.09 35.18 32.87 34.58 34.82 34.85 33.07 33.15 32.63 32.92 32.64 32.39 33.02 32.53 33.02
35.81 37.41 30.70 31.07 31.97 32.71 32.53 32.89 33.98 34.31 34.90 35.80 36.88 36.52 38.59 34.35 33.62 33.98 33.26 30.90 30.29 31.74 31.60 31.98 33.03 34.22 35.28 35.47 35.85 35.37 34.74 33.39 34.91 35.89 32.86 31.87 32.28 32.72 33.00 33.10 32.31 31.12 30.31 29.26
35.39 33.93 31.63 32.53 32.17 31.81 32.35 32.53 32.17 35.26 34.53 35.40 37.09 34.04 34.16 31.99 33.98 31.99 31.23 31.19 29.39 30.05 33.36 33.56 34.30 34.03 34.42 34.69 35.12 35.64 36.36 35.43 34.69 34.08 33.52 32.72 31.60 31.78 32.21 31.59 29.30 28.34 28.53 27.28
32.71 32.17 32.89 32.71 32.53 31.99 31.99 32.53 32.71 34.87 33.80 32.17 35.57 32.89 30.23 33.34 31.42 30.20 33.70 31.98 33.57 34.31 34.33 34.34 34.66 33.94 33.82 36.27 35.75 34.54 34.03 34.23 34.29 33.72 32.59 31.58 30.91 29.55 28.19 26.82 26.97 27.26 27.60 26.99